<?xml version="1.0" encoding="UTF-8" standalone="no" ?>
<gpx xmlns="http://www.topografix.com/GPX/1/1" xmlns:xsi="http://www.w3.org/2001/XMLSchema-instance" xsi:schemaLocation="http://www.topografix.com/GPX/1/1 http://www.topografix.com/GPX/1/1/gpx.xsd" version="1.1" creator="VisuGPX - https://www.visugpx.com">
  <metadata>
    <name>Kilian's Classik - Trail de Font Romeu</name>
  </metadata>
  <trk>
    <name><![CDATA[Kilian's Classik - Trail de Font Romeu]]></name>
    <trkseg>
      <trkpt lat="42.50518" lon="2.04259">
        <ele>1761.22</ele>
        <time>2021-10-20T22:00:04Z</time>
      </trkpt>
      <trkpt lat="42.50521" lon="2.04294">
        <ele>1762.5</ele>
        <time>2021-10-20T22:00:04Z</time>
      </trkpt>
      <trkpt lat="42.50527" lon="2.04326">
        <ele>1764.44</ele>
        <time>2021-10-20T22:00:04Z</time>
      </trkpt>
      <trkpt lat="42.50526" lon="2.04353">
        <ele>1764.92</ele>
        <time>2021-10-20T22:00:04Z</time>
      </trkpt>
      <trkpt lat="42.50524" lon="2.04393">
        <ele>1766.38</ele>
        <time>2021-10-20T22:00:04Z</time>
      </trkpt>
      <trkpt lat="42.50516" lon="2.04423">
        <ele>1766.28</ele>
        <time>2021-10-20T22:00:04Z</time>
      </trkpt>
      <trkpt lat="42.50513" lon="2.04453">
        <ele>1767.54</ele>
        <time>2021-10-20T22:00:04Z</time>
      </trkpt>
      <trkpt lat="42.50516" lon="2.04467">
        <ele>1768.92</ele>
        <time>2021-10-20T22:00:04Z</time>
      </trkpt>
      <trkpt lat="42.50524" lon="2.04485">
        <ele>1771.19</ele>
        <time>2021-10-20T22:00:04Z</time>
      </trkpt>
      <trkpt lat="42.50537" lon="2.04495">
        <ele>1773.28</ele>
        <time>2021-10-20T22:00:04Z</time>
      </trkpt>
      <trkpt lat="42.50554" lon="2.04505">
        <ele>1775.86</ele>
        <time>2021-10-20T22:00:04Z</time>
      </trkpt>
      <trkpt lat="42.50569" lon="2.04514">
        <ele>1778.02</ele>
        <time>2021-10-20T22:00:04Z</time>
      </trkpt>
      <trkpt lat="42.50584" lon="2.04491">
        <ele>1780.64</ele>
        <time>2021-10-20T22:00:04Z</time>
      </trkpt>
      <trkpt lat="42.50592" lon="2.04462">
        <ele>1781.59</ele>
        <time>2021-10-20T22:00:04Z</time>
      </trkpt>
      <trkpt lat="42.50599" lon="2.04439">
        <ele>1782.33</ele>
        <time>2021-10-20T22:00:04Z</time>
      </trkpt>
      <trkpt lat="42.50603" lon="2.04409">
        <ele>1782.51</ele>
        <time>2021-10-20T22:00:04Z</time>
      </trkpt>
      <trkpt lat="42.50611" lon="2.04389">
        <ele>1783.72</ele>
        <time>2021-10-20T22:00:04Z</time>
      </trkpt>
      <trkpt lat="42.50621" lon="2.04366">
        <ele>1784.86</ele>
        <time>2021-10-20T22:00:04Z</time>
      </trkpt>
      <trkpt lat="42.50628" lon="2.04348">
        <ele>1785.83</ele>
        <time>2021-10-20T22:00:04Z</time>
      </trkpt>
      <trkpt lat="42.50635" lon="2.04323">
        <ele>1787.75</ele>
        <time>2021-10-20T22:00:04Z</time>
      </trkpt>
      <trkpt lat="42.50646" lon="2.04332">
        <ele>1789.32</ele>
        <time>2021-10-20T22:00:04Z</time>
      </trkpt>
      <trkpt lat="42.50658" lon="2.04322">
        <ele>1791.94</ele>
        <time>2021-10-20T22:00:04Z</time>
      </trkpt>
      <trkpt lat="42.50679" lon="2.04328">
        <ele>1795.29</ele>
        <time>2021-10-20T22:00:04Z</time>
      </trkpt>
      <trkpt lat="42.50694" lon="2.04333">
        <ele>1797.68</ele>
        <time>2021-10-20T22:00:04Z</time>
      </trkpt>
      <trkpt lat="42.50712" lon="2.04334">
        <ele>1800.93</ele>
        <time>2021-10-20T22:00:04Z</time>
      </trkpt>
      <trkpt lat="42.5073" lon="2.04343">
        <ele>1803.79</ele>
        <time>2021-10-20T22:00:04Z</time>
      </trkpt>
      <trkpt lat="42.50746" lon="2.04357">
        <ele>1806.19</ele>
        <time>2021-10-20T22:00:04Z</time>
      </trkpt>
      <trkpt lat="42.50758" lon="2.0437">
        <ele>1807.88</ele>
        <time>2021-10-20T22:00:04Z</time>
      </trkpt>
      <trkpt lat="42.50774" lon="2.04382">
        <ele>1810.17</ele>
        <time>2021-10-20T22:00:04Z</time>
      </trkpt>
      <trkpt lat="42.50777" lon="2.04394">
        <ele>1809.97</ele>
        <time>2021-10-20T22:00:04Z</time>
      </trkpt>
      <trkpt lat="42.50788" lon="2.0441">
        <ele>1810.76</ele>
        <time>2021-10-20T22:00:04Z</time>
      </trkpt>
      <trkpt lat="42.50794" lon="2.04426">
        <ele>1810.73</ele>
        <time>2021-10-20T22:00:04Z</time>
      </trkpt>
      <trkpt lat="42.50805" lon="2.04441">
        <ele>1811.24</ele>
        <time>2021-10-20T22:00:04Z</time>
      </trkpt>
      <trkpt lat="42.50817" lon="2.04452">
        <ele>1811.8</ele>
        <time>2021-10-20T22:00:04Z</time>
      </trkpt>
      <trkpt lat="42.50835" lon="2.04456">
        <ele>1813.86</ele>
        <time>2021-10-20T22:00:04Z</time>
      </trkpt>
      <trkpt lat="42.50855" lon="2.04453">
        <ele>1816.87</ele>
        <time>2021-10-20T22:00:04Z</time>
      </trkpt>
      <trkpt lat="42.50881" lon="2.04447">
        <ele>1821.16</ele>
        <time>2021-10-20T22:00:04Z</time>
      </trkpt>
      <trkpt lat="42.50904" lon="2.04436">
        <ele>1825.74</ele>
        <time>2021-10-20T22:00:04Z</time>
      </trkpt>
      <trkpt lat="42.50921" lon="2.0444">
        <ele>1827.55</ele>
        <time>2021-10-20T22:00:04Z</time>
      </trkpt>
      <trkpt lat="42.5094" lon="2.04445">
        <ele>1829.55</ele>
        <time>2021-10-20T22:00:04Z</time>
      </trkpt>
      <trkpt lat="42.50952" lon="2.0446">
        <ele>1829.45</ele>
        <time>2021-10-20T22:00:04Z</time>
      </trkpt>
      <trkpt lat="42.50961" lon="2.04475">
        <ele>1828.98</ele>
        <time>2021-10-20T22:00:04Z</time>
      </trkpt>
      <trkpt lat="42.50966" lon="2.045">
        <ele>1827.56</ele>
        <time>2021-10-20T22:00:04Z</time>
      </trkpt>
      <trkpt lat="42.50972" lon="2.04519">
        <ele>1827.05</ele>
        <time>2021-10-20T22:00:04Z</time>
      </trkpt>
      <trkpt lat="42.50976" lon="2.04545">
        <ele>1825.74</ele>
        <time>2021-10-20T22:00:04Z</time>
      </trkpt>
      <trkpt lat="42.50984" lon="2.04571">
        <ele>1824.17</ele>
        <time>2021-10-20T22:00:04Z</time>
      </trkpt>
      <trkpt lat="42.50989" lon="2.04607">
        <ele>1820.7</ele>
        <time>2021-10-20T22:00:04Z</time>
      </trkpt>
      <trkpt lat="42.50996" lon="2.04626">
        <ele>1819.18</ele>
        <time>2021-10-20T22:00:04Z</time>
      </trkpt>
      <trkpt lat="42.51002" lon="2.04642">
        <ele>1817.26</ele>
        <time>2021-10-20T22:00:04Z</time>
      </trkpt>
      <trkpt lat="42.51016" lon="2.04652">
        <ele>1817.55</ele>
        <time>2021-10-20T22:00:04Z</time>
      </trkpt>
      <trkpt lat="42.51034" lon="2.0465">
        <ele>1819.38</ele>
        <time>2021-10-20T22:00:04Z</time>
      </trkpt>
      <trkpt lat="42.51047" lon="2.04631">
        <ele>1823.03</ele>
        <time>2021-10-20T22:00:04Z</time>
      </trkpt>
      <trkpt lat="42.51058" lon="2.04613">
        <ele>1826.06</ele>
        <time>2021-10-20T22:00:04Z</time>
      </trkpt>
      <trkpt lat="42.51071" lon="2.04599">
        <ele>1828.57</ele>
        <time>2021-10-20T22:00:04Z</time>
      </trkpt>
      <trkpt lat="42.51089" lon="2.04594">
        <ele>1830.13</ele>
        <time>2021-10-20T22:00:04Z</time>
      </trkpt>
      <trkpt lat="42.51108" lon="2.04597">
        <ele>1829.66</ele>
        <time>2021-10-20T22:00:04Z</time>
      </trkpt>
      <trkpt lat="42.51126" lon="2.04599">
        <ele>1829.26</ele>
        <time>2021-10-20T22:00:04Z</time>
      </trkpt>
      <trkpt lat="42.5114" lon="2.04597">
        <ele>1829.5</ele>
        <time>2021-10-20T22:00:04Z</time>
      </trkpt>
      <trkpt lat="42.51155" lon="2.04591">
        <ele>1830.31</ele>
        <time>2021-10-20T22:00:04Z</time>
      </trkpt>
      <trkpt lat="42.5117" lon="2.04579">
        <ele>1832.17</ele>
        <time>2021-10-20T22:00:04Z</time>
      </trkpt>
      <trkpt lat="42.51187" lon="2.04569">
        <ele>1833.58</ele>
        <time>2021-10-20T22:00:04Z</time>
      </trkpt>
      <trkpt lat="42.51205" lon="2.04568">
        <ele>1833.75</ele>
        <time>2021-10-20T22:00:04Z</time>
      </trkpt>
      <trkpt lat="42.51227" lon="2.04558">
        <ele>1834.55</ele>
        <time>2021-10-20T22:00:04Z</time>
      </trkpt>
      <trkpt lat="42.51245" lon="2.04553">
        <ele>1835.43</ele>
        <time>2021-10-20T22:00:04Z</time>
      </trkpt>
      <trkpt lat="42.5126" lon="2.0455">
        <ele>1836.01</ele>
        <time>2021-10-20T22:00:04Z</time>
      </trkpt>
      <trkpt lat="42.51279" lon="2.04545">
        <ele>1836.7</ele>
        <time>2021-10-20T22:00:04Z</time>
      </trkpt>
      <trkpt lat="42.5129" lon="2.04534">
        <ele>1837.19</ele>
        <time>2021-10-20T22:00:04Z</time>
      </trkpt>
      <trkpt lat="42.51299" lon="2.04522">
        <ele>1837.59</ele>
        <time>2021-10-20T22:00:04Z</time>
      </trkpt>
      <trkpt lat="42.51314" lon="2.04513">
        <ele>1838.71</ele>
        <time>2021-10-20T22:00:04Z</time>
      </trkpt>
      <trkpt lat="42.51331" lon="2.04499">
        <ele>1839.45</ele>
        <time>2021-10-20T22:00:04Z</time>
      </trkpt>
      <trkpt lat="42.51348" lon="2.04496">
        <ele>1840.14</ele>
        <time>2021-10-20T22:00:04Z</time>
      </trkpt>
      <trkpt lat="42.51367" lon="2.04498">
        <ele>1841.23</ele>
        <time>2021-10-20T22:00:04Z</time>
      </trkpt>
      <trkpt lat="42.51382" lon="2.04502">
        <ele>1843.11</ele>
        <time>2021-10-20T22:00:04Z</time>
      </trkpt>
      <trkpt lat="42.51395" lon="2.04513">
        <ele>1845.36</ele>
        <time>2021-10-20T22:00:04Z</time>
      </trkpt>
      <trkpt lat="42.51415" lon="2.04521">
        <ele>1848.19</ele>
        <time>2021-10-20T22:00:04Z</time>
      </trkpt>
      <trkpt lat="42.51433" lon="2.04527">
        <ele>1850.69</ele>
        <time>2021-10-20T22:00:04Z</time>
      </trkpt>
      <trkpt lat="42.51452" lon="2.04532">
        <ele>1852.05</ele>
        <time>2021-10-20T22:00:04Z</time>
      </trkpt>
      <trkpt lat="42.51469" lon="2.04537">
        <ele>1853.23</ele>
        <time>2021-10-20T22:00:04Z</time>
      </trkpt>
      <trkpt lat="42.5149" lon="2.04539">
        <ele>1854.32</ele>
        <time>2021-10-20T22:00:04Z</time>
      </trkpt>
      <trkpt lat="42.51509" lon="2.04539">
        <ele>1855.85</ele>
        <time>2021-10-20T22:00:04Z</time>
      </trkpt>
      <trkpt lat="42.51526" lon="2.04539">
        <ele>1858.55</ele>
        <time>2021-10-20T22:00:04Z</time>
      </trkpt>
      <trkpt lat="42.51547" lon="2.04537">
        <ele>1861.81</ele>
        <time>2021-10-20T22:00:04Z</time>
      </trkpt>
      <trkpt lat="42.51562" lon="2.04532">
        <ele>1864.11</ele>
        <time>2021-10-20T22:00:04Z</time>
      </trkpt>
      <trkpt lat="42.51581" lon="2.04529">
        <ele>1867.03</ele>
        <time>2021-10-20T22:00:04Z</time>
      </trkpt>
      <trkpt lat="42.5161" lon="2.0453">
        <ele>1871.24</ele>
        <time>2021-10-20T22:00:04Z</time>
      </trkpt>
      <trkpt lat="42.51628" lon="2.04531">
        <ele>1873.83</ele>
        <time>2021-10-20T22:00:04Z</time>
      </trkpt>
      <trkpt lat="42.51649" lon="2.04532">
        <ele>1876.4</ele>
        <time>2021-10-20T22:00:04Z</time>
      </trkpt>
      <trkpt lat="42.51668" lon="2.04534">
        <ele>1878.14</ele>
        <time>2021-10-20T22:00:04Z</time>
      </trkpt>
      <trkpt lat="42.51688" lon="2.04541">
        <ele>1879.69</ele>
        <time>2021-10-20T22:00:04Z</time>
      </trkpt>
      <trkpt lat="42.51707" lon="2.04546">
        <ele>1881.15</ele>
        <time>2021-10-20T22:00:04Z</time>
      </trkpt>
      <trkpt lat="42.51731" lon="2.04549">
        <ele>1882.44</ele>
        <time>2021-10-20T22:00:04Z</time>
      </trkpt>
      <trkpt lat="42.51742" lon="2.04562">
        <ele>1882.62</ele>
        <time>2021-10-20T22:00:04Z</time>
      </trkpt>
      <trkpt lat="42.51748" lon="2.04577">
        <ele>1882.54</ele>
        <time>2021-10-20T22:00:04Z</time>
      </trkpt>
      <trkpt lat="42.51758" lon="2.0459">
        <ele>1882.74</ele>
        <time>2021-10-20T22:00:04Z</time>
      </trkpt>
      <trkpt lat="42.51781" lon="2.04603">
        <ele>1883.53</ele>
        <time>2021-10-20T22:00:04Z</time>
      </trkpt>
      <trkpt lat="42.51794" lon="2.04616">
        <ele>1883.16</ele>
        <time>2021-10-20T22:00:04Z</time>
      </trkpt>
      <trkpt lat="42.51807" lon="2.04629">
        <ele>1882.89</ele>
        <time>2021-10-20T22:00:04Z</time>
      </trkpt>
      <trkpt lat="42.5182" lon="2.04641">
        <ele>1882.63</ele>
        <time>2021-10-20T22:00:04Z</time>
      </trkpt>
      <trkpt lat="42.5183" lon="2.04652">
        <ele>1882.3</ele>
        <time>2021-10-20T22:00:04Z</time>
      </trkpt>
      <trkpt lat="42.51847" lon="2.04667">
        <ele>1881.62</ele>
        <time>2021-10-20T22:00:04Z</time>
      </trkpt>
      <trkpt lat="42.51869" lon="2.04665">
        <ele>1881.17</ele>
        <time>2021-10-20T22:00:04Z</time>
      </trkpt>
      <trkpt lat="42.51887" lon="2.04663">
        <ele>1880.88</ele>
        <time>2021-10-20T22:00:04Z</time>
      </trkpt>
      <trkpt lat="42.51908" lon="2.04661">
        <ele>1880.59</ele>
        <time>2021-10-20T22:00:04Z</time>
      </trkpt>
      <trkpt lat="42.51927" lon="2.04658">
        <ele>1879.88</ele>
        <time>2021-10-20T22:00:04Z</time>
      </trkpt>
      <trkpt lat="42.51944" lon="2.04655">
        <ele>1879.06</ele>
        <time>2021-10-20T22:00:04Z</time>
      </trkpt>
      <trkpt lat="42.51962" lon="2.04654">
        <ele>1878.01</ele>
        <time>2021-10-20T22:00:04Z</time>
      </trkpt>
      <trkpt lat="42.51982" lon="2.04657">
        <ele>1876.24</ele>
        <time>2021-10-20T22:00:04Z</time>
      </trkpt>
      <trkpt lat="42.52001" lon="2.0466">
        <ele>1874.53</ele>
        <time>2021-10-20T22:00:04Z</time>
      </trkpt>
      <trkpt lat="42.52018" lon="2.04661">
        <ele>1873.28</ele>
        <time>2021-10-20T22:00:04Z</time>
      </trkpt>
      <trkpt lat="42.52034" lon="2.04652">
        <ele>1873.6</ele>
        <time>2021-10-20T22:00:04Z</time>
      </trkpt>
      <trkpt lat="42.52047" lon="2.04645">
        <ele>1873.77</ele>
        <time>2021-10-20T22:00:04Z</time>
      </trkpt>
      <trkpt lat="42.52063" lon="2.04639">
        <ele>1874.57</ele>
        <time>2021-10-20T22:00:04Z</time>
      </trkpt>
      <trkpt lat="42.52077" lon="2.04629">
        <ele>1876.24</ele>
        <time>2021-10-20T22:00:04Z</time>
      </trkpt>
      <trkpt lat="42.52086" lon="2.04619">
        <ele>1877.68</ele>
        <time>2021-10-20T22:00:04Z</time>
      </trkpt>
      <trkpt lat="42.521" lon="2.04613">
        <ele>1878.65</ele>
        <time>2021-10-20T22:00:04Z</time>
      </trkpt>
      <trkpt lat="42.52104" lon="2.04626">
        <ele>1877.12</ele>
        <time>2021-10-20T22:00:04Z</time>
      </trkpt>
      <trkpt lat="42.52114" lon="2.04644">
        <ele>1875.38</ele>
        <time>2021-10-20T22:00:04Z</time>
      </trkpt>
      <trkpt lat="42.52116" lon="2.04662">
        <ele>1873.55</ele>
        <time>2021-10-20T22:00:04Z</time>
      </trkpt>
      <trkpt lat="42.52122" lon="2.04673">
        <ele>1872.79</ele>
        <time>2021-10-20T22:00:04Z</time>
      </trkpt>
      <trkpt lat="42.52132" lon="2.04684">
        <ele>1873.26</ele>
        <time>2021-10-20T22:00:04Z</time>
      </trkpt>
      <trkpt lat="42.52131" lon="2.04728">
        <ele>1869.77</ele>
        <time>2021-10-20T22:00:04Z</time>
      </trkpt>
      <trkpt lat="42.5213" lon="2.04788">
        <ele>1864.74</ele>
        <time>2021-10-20T22:00:04Z</time>
      </trkpt>
      <trkpt lat="42.52126" lon="2.0481">
        <ele>1862.18</ele>
        <time>2021-10-20T22:00:04Z</time>
      </trkpt>
      <trkpt lat="42.5212" lon="2.04838">
        <ele>1858.9</ele>
        <time>2021-10-20T22:00:04Z</time>
      </trkpt>
      <trkpt lat="42.52112" lon="2.04851">
        <ele>1857.02</ele>
        <time>2021-10-20T22:00:04Z</time>
      </trkpt>
      <trkpt lat="42.52119" lon="2.04877">
        <ele>1855.38</ele>
        <time>2021-10-20T22:00:04Z</time>
      </trkpt>
      <trkpt lat="42.52122" lon="2.04891">
        <ele>1854.46</ele>
        <time>2021-10-20T22:00:04Z</time>
      </trkpt>
      <trkpt lat="42.52133" lon="2.04902">
        <ele>1854.17</ele>
        <time>2021-10-20T22:00:04Z</time>
      </trkpt>
      <trkpt lat="42.52152" lon="2.0492">
        <ele>1853.2</ele>
        <time>2021-10-20T22:00:04Z</time>
      </trkpt>
      <trkpt lat="42.52161" lon="2.0493">
        <ele>1852.39</ele>
        <time>2021-10-20T22:00:04Z</time>
      </trkpt>
      <trkpt lat="42.52175" lon="2.04942">
        <ele>1851.59</ele>
        <time>2021-10-20T22:00:04Z</time>
      </trkpt>
      <trkpt lat="42.52192" lon="2.04947">
        <ele>1851.96</ele>
        <time>2021-10-20T22:00:04Z</time>
      </trkpt>
      <trkpt lat="42.52207" lon="2.04952">
        <ele>1851.34</ele>
        <time>2021-10-20T22:00:04Z</time>
      </trkpt>
      <trkpt lat="42.52221" lon="2.04962">
        <ele>1849.76</ele>
        <time>2021-10-20T22:00:04Z</time>
      </trkpt>
      <trkpt lat="42.52237" lon="2.04966">
        <ele>1849.37</ele>
        <time>2021-10-20T22:00:04Z</time>
      </trkpt>
      <trkpt lat="42.52255" lon="2.0497">
        <ele>1849.12</ele>
        <time>2021-10-20T22:00:04Z</time>
      </trkpt>
      <trkpt lat="42.52272" lon="2.04971">
        <ele>1850.54</ele>
        <time>2021-10-20T22:00:04Z</time>
      </trkpt>
      <trkpt lat="42.52286" lon="2.0498">
        <ele>1851.16</ele>
        <time>2021-10-20T22:00:04Z</time>
      </trkpt>
      <trkpt lat="42.52289" lon="2.04993">
        <ele>1850.24</ele>
        <time>2021-10-20T22:00:04Z</time>
      </trkpt>
      <trkpt lat="42.52293" lon="2.05008">
        <ele>1849.36</ele>
        <time>2021-10-20T22:00:04Z</time>
      </trkpt>
      <trkpt lat="42.52287" lon="2.05027">
        <ele>1846.55</ele>
        <time>2021-10-20T22:00:04Z</time>
      </trkpt>
      <trkpt lat="42.52281" lon="2.05043">
        <ele>1844.5</ele>
        <time>2021-10-20T22:00:04Z</time>
      </trkpt>
      <trkpt lat="42.52273" lon="2.05054">
        <ele>1842.51</ele>
        <time>2021-10-20T22:00:04Z</time>
      </trkpt>
      <trkpt lat="42.52264" lon="2.05064">
        <ele>1840.27</ele>
        <time>2021-10-20T22:00:04Z</time>
      </trkpt>
      <trkpt lat="42.52262" lon="2.05078">
        <ele>1839.09</ele>
        <time>2021-10-20T22:00:04Z</time>
      </trkpt>
      <trkpt lat="42.52262" lon="2.05094">
        <ele>1838.2</ele>
        <time>2021-10-20T22:00:04Z</time>
      </trkpt>
      <trkpt lat="42.52254" lon="2.05106">
        <ele>1836.82</ele>
        <time>2021-10-20T22:00:04Z</time>
      </trkpt>
      <trkpt lat="42.52247" lon="2.0512">
        <ele>1836.59</ele>
        <time>2021-10-20T22:00:04Z</time>
      </trkpt>
      <trkpt lat="42.52238" lon="2.05145">
        <ele>1836.23</ele>
        <time>2021-10-20T22:00:04Z</time>
      </trkpt>
      <trkpt lat="42.52233" lon="2.05159">
        <ele>1835.91</ele>
        <time>2021-10-20T22:00:04Z</time>
      </trkpt>
      <trkpt lat="42.52224" lon="2.05177">
        <ele>1835.48</ele>
        <time>2021-10-20T22:00:04Z</time>
      </trkpt>
      <trkpt lat="42.52219" lon="2.0519">
        <ele>1835.6</ele>
        <time>2021-10-20T22:00:04Z</time>
      </trkpt>
      <trkpt lat="42.52216" lon="2.05203">
        <ele>1835.86</ele>
        <time>2021-10-20T22:00:04Z</time>
      </trkpt>
      <trkpt lat="42.52219" lon="2.05217">
        <ele>1837.17</ele>
        <time>2021-10-20T22:00:04Z</time>
      </trkpt>
      <trkpt lat="42.52192" lon="2.05249">
        <ele>1833.78</ele>
        <time>2021-10-20T22:00:04Z</time>
      </trkpt>
      <trkpt lat="42.52182" lon="2.05254">
        <ele>1833.03</ele>
        <time>2021-10-20T22:00:04Z</time>
      </trkpt>
      <trkpt lat="42.52172" lon="2.0526">
        <ele>1832.58</ele>
        <time>2021-10-20T22:00:04Z</time>
      </trkpt>
      <trkpt lat="42.52159" lon="2.05271">
        <ele>1832.07</ele>
        <time>2021-10-20T22:00:04Z</time>
      </trkpt>
      <trkpt lat="42.5215" lon="2.05277">
        <ele>1831.42</ele>
        <time>2021-10-20T22:00:04Z</time>
      </trkpt>
      <trkpt lat="42.52141" lon="2.05286">
        <ele>1830.84</ele>
        <time>2021-10-20T22:00:04Z</time>
      </trkpt>
      <trkpt lat="42.52132" lon="2.05295">
        <ele>1830.1</ele>
        <time>2021-10-20T22:00:04Z</time>
      </trkpt>
      <trkpt lat="42.52124" lon="2.05306">
        <ele>1829.44</ele>
        <time>2021-10-20T22:00:04Z</time>
      </trkpt>
      <trkpt lat="42.52117" lon="2.05315">
        <ele>1829.38</ele>
        <time>2021-10-20T22:00:04Z</time>
      </trkpt>
      <trkpt lat="42.52106" lon="2.05331">
        <ele>1829.63</ele>
        <time>2021-10-20T22:00:04Z</time>
      </trkpt>
      <trkpt lat="42.52098" lon="2.0534">
        <ele>1829.41</ele>
        <time>2021-10-20T22:00:04Z</time>
      </trkpt>
      <trkpt lat="42.52095" lon="2.05372">
        <ele>1831</ele>
        <time>2021-10-20T22:00:04Z</time>
      </trkpt>
      <trkpt lat="42.52099" lon="2.0539">
        <ele>1833.13</ele>
        <time>2021-10-20T22:00:04Z</time>
      </trkpt>
      <trkpt lat="42.52104" lon="2.05402">
        <ele>1835.02</ele>
        <time>2021-10-20T22:00:04Z</time>
      </trkpt>
      <trkpt lat="42.52108" lon="2.05421">
        <ele>1837.48</ele>
        <time>2021-10-20T22:00:04Z</time>
      </trkpt>
      <trkpt lat="42.5211" lon="2.05449">
        <ele>1840.62</ele>
        <time>2021-10-20T22:00:04Z</time>
      </trkpt>
      <trkpt lat="42.52113" lon="2.05463">
        <ele>1842.75</ele>
        <time>2021-10-20T22:00:04Z</time>
      </trkpt>
      <trkpt lat="42.52115" lon="2.05479">
        <ele>1844.95</ele>
        <time>2021-10-20T22:00:04Z</time>
      </trkpt>
      <trkpt lat="42.52116" lon="2.05497">
        <ele>1847.21</ele>
        <time>2021-10-20T22:00:04Z</time>
      </trkpt>
      <trkpt lat="42.52119" lon="2.05516">
        <ele>1849.72</ele>
        <time>2021-10-20T22:00:04Z</time>
      </trkpt>
      <trkpt lat="42.52128" lon="2.05527">
        <ele>1851.73</ele>
        <time>2021-10-20T22:00:04Z</time>
      </trkpt>
      <trkpt lat="42.52137" lon="2.05537">
        <ele>1853.38</ele>
        <time>2021-10-20T22:00:04Z</time>
      </trkpt>
      <trkpt lat="42.52154" lon="2.05549">
        <ele>1855.74</ele>
        <time>2021-10-20T22:00:04Z</time>
      </trkpt>
      <trkpt lat="42.52171" lon="2.05549">
        <ele>1858.16</ele>
        <time>2021-10-20T22:00:04Z</time>
      </trkpt>
      <trkpt lat="42.52187" lon="2.05549">
        <ele>1860.43</ele>
        <time>2021-10-20T22:00:04Z</time>
      </trkpt>
      <trkpt lat="42.52209" lon="2.05548">
        <ele>1863.43</ele>
        <time>2021-10-20T22:00:04Z</time>
      </trkpt>
      <trkpt lat="42.52225" lon="2.05548">
        <ele>1865.5</ele>
        <time>2021-10-20T22:00:04Z</time>
      </trkpt>
      <trkpt lat="42.52244" lon="2.05547">
        <ele>1868.21</ele>
        <time>2021-10-20T22:00:04Z</time>
      </trkpt>
      <trkpt lat="42.52259" lon="2.05547">
        <ele>1870.21</ele>
        <time>2021-10-20T22:00:04Z</time>
      </trkpt>
      <trkpt lat="42.52274" lon="2.05547">
        <ele>1872.73</ele>
        <time>2021-10-20T22:00:04Z</time>
      </trkpt>
      <trkpt lat="42.52291" lon="2.05549">
        <ele>1874.98</ele>
        <time>2021-10-20T22:00:04Z</time>
      </trkpt>
      <trkpt lat="42.52308" lon="2.05553">
        <ele>1876.61</ele>
        <time>2021-10-20T22:00:04Z</time>
      </trkpt>
      <trkpt lat="42.52324" lon="2.05556">
        <ele>1878.36</ele>
        <time>2021-10-20T22:00:04Z</time>
      </trkpt>
      <trkpt lat="42.52339" lon="2.05559">
        <ele>1879.57</ele>
        <time>2021-10-20T22:00:04Z</time>
      </trkpt>
      <trkpt lat="42.52355" lon="2.05561">
        <ele>1881.16</ele>
        <time>2021-10-20T22:00:04Z</time>
      </trkpt>
      <trkpt lat="42.52371" lon="2.05564">
        <ele>1882.49</ele>
        <time>2021-10-20T22:00:04Z</time>
      </trkpt>
      <trkpt lat="42.52384" lon="2.0557">
        <ele>1882.59</ele>
        <time>2021-10-20T22:00:04Z</time>
      </trkpt>
      <trkpt lat="42.52396" lon="2.05577">
        <ele>1882.36</ele>
        <time>2021-10-20T22:00:04Z</time>
      </trkpt>
      <trkpt lat="42.52405" lon="2.05584">
        <ele>1882.19</ele>
        <time>2021-10-20T22:00:04Z</time>
      </trkpt>
      <trkpt lat="42.52419" lon="2.05599">
        <ele>1881.72</ele>
        <time>2021-10-20T22:00:04Z</time>
      </trkpt>
      <trkpt lat="42.52431" lon="2.05606">
        <ele>1882.39</ele>
        <time>2021-10-20T22:00:04Z</time>
      </trkpt>
      <trkpt lat="42.52442" lon="2.05612">
        <ele>1883.06</ele>
        <time>2021-10-20T22:00:04Z</time>
      </trkpt>
      <trkpt lat="42.52457" lon="2.05614">
        <ele>1885.18</ele>
        <time>2021-10-20T22:00:04Z</time>
      </trkpt>
      <trkpt lat="42.52472" lon="2.05617">
        <ele>1886.64</ele>
        <time>2021-10-20T22:00:04Z</time>
      </trkpt>
      <trkpt lat="42.5249" lon="2.05618">
        <ele>1888.39</ele>
        <time>2021-10-20T22:00:04Z</time>
      </trkpt>
      <trkpt lat="42.52504" lon="2.05622">
        <ele>1889.06</ele>
        <time>2021-10-20T22:00:04Z</time>
      </trkpt>
      <trkpt lat="42.52518" lon="2.05626">
        <ele>1889.71</ele>
        <time>2021-10-20T22:00:04Z</time>
      </trkpt>
      <trkpt lat="42.52533" lon="2.05627">
        <ele>1891.1</ele>
        <time>2021-10-20T22:00:04Z</time>
      </trkpt>
      <trkpt lat="42.52545" lon="2.05628">
        <ele>1891.58</ele>
        <time>2021-10-20T22:00:04Z</time>
      </trkpt>
      <trkpt lat="42.52563" lon="2.05628">
        <ele>1892.64</ele>
        <time>2021-10-20T22:00:04Z</time>
      </trkpt>
      <trkpt lat="42.52578" lon="2.05628">
        <ele>1893.52</ele>
        <time>2021-10-20T22:00:04Z</time>
      </trkpt>
      <trkpt lat="42.52592" lon="2.05624">
        <ele>1895.06</ele>
        <time>2021-10-20T22:00:04Z</time>
      </trkpt>
      <trkpt lat="42.52611" lon="2.0562">
        <ele>1896.5</ele>
        <time>2021-10-20T22:00:04Z</time>
      </trkpt>
      <trkpt lat="42.5263" lon="2.0562">
        <ele>1896.91</ele>
        <time>2021-10-20T22:00:04Z</time>
      </trkpt>
      <trkpt lat="42.52646" lon="2.05617">
        <ele>1897.55</ele>
        <time>2021-10-20T22:00:04Z</time>
      </trkpt>
      <trkpt lat="42.52662" lon="2.05613">
        <ele>1898.1</ele>
        <time>2021-10-20T22:00:04Z</time>
      </trkpt>
      <trkpt lat="42.52677" lon="2.05607">
        <ele>1898.8</ele>
        <time>2021-10-20T22:00:04Z</time>
      </trkpt>
      <trkpt lat="42.5269" lon="2.05603">
        <ele>1899.49</ele>
        <time>2021-10-20T22:00:04Z</time>
      </trkpt>
      <trkpt lat="42.52708" lon="2.05593">
        <ele>1900.34</ele>
        <time>2021-10-20T22:00:04Z</time>
      </trkpt>
      <trkpt lat="42.52729" lon="2.05572">
        <ele>1902.04</ele>
        <time>2021-10-20T22:00:04Z</time>
      </trkpt>
      <trkpt lat="42.52738" lon="2.05564">
        <ele>1903.05</ele>
        <time>2021-10-20T22:00:04Z</time>
      </trkpt>
      <trkpt lat="42.52752" lon="2.05567">
        <ele>1902.67</ele>
        <time>2021-10-20T22:00:04Z</time>
      </trkpt>
      <trkpt lat="42.52752" lon="2.05602">
        <ele>1901.18</ele>
        <time>2021-10-20T22:00:04Z</time>
      </trkpt>
      <trkpt lat="42.52636" lon="2.05779">
        <ele>1883.83</ele>
        <time>2021-10-20T22:00:04Z</time>
      </trkpt>
      <trkpt lat="42.52621" lon="2.05854">
        <ele>1873.51</ele>
        <time>2021-10-20T22:00:04Z</time>
      </trkpt>
      <trkpt lat="42.5262" lon="2.05867">
        <ele>1872.2</ele>
        <time>2021-10-20T22:00:04Z</time>
      </trkpt>
      <trkpt lat="42.52609" lon="2.05938">
        <ele>1866.31</ele>
        <time>2021-10-20T22:00:04Z</time>
      </trkpt>
      <trkpt lat="42.52604" lon="2.05948">
        <ele>1866.07</ele>
        <time>2021-10-20T22:00:04Z</time>
      </trkpt>
      <trkpt lat="42.52554" lon="2.06075">
        <ele>1860.13</ele>
        <time>2021-10-20T22:00:04Z</time>
      </trkpt>
      <trkpt lat="42.52483" lon="2.06207">
        <ele>1857.23</ele>
        <time>2021-10-20T22:00:04Z</time>
      </trkpt>
      <trkpt lat="42.52477" lon="2.06216">
        <ele>1857.2</ele>
        <time>2021-10-20T22:00:04Z</time>
      </trkpt>
      <trkpt lat="42.52472" lon="2.06228">
        <ele>1857.29</ele>
        <time>2021-10-20T22:00:04Z</time>
      </trkpt>
      <trkpt lat="42.5246" lon="2.06259">
        <ele>1857.58</ele>
        <time>2021-10-20T22:00:04Z</time>
      </trkpt>
      <trkpt lat="42.52457" lon="2.06272">
        <ele>1857.49</ele>
        <time>2021-10-20T22:00:04Z</time>
      </trkpt>
      <trkpt lat="42.52453" lon="2.06287">
        <ele>1856.98</ele>
        <time>2021-10-20T22:00:04Z</time>
      </trkpt>
      <trkpt lat="42.52449" lon="2.063">
        <ele>1856.6</ele>
        <time>2021-10-20T22:00:04Z</time>
      </trkpt>
      <trkpt lat="42.52401" lon="2.06333">
        <ele>1855.9</ele>
        <time>2021-10-20T22:00:04Z</time>
      </trkpt>
      <trkpt lat="42.52392" lon="2.06341">
        <ele>1855.32</ele>
        <time>2021-10-20T22:00:04Z</time>
      </trkpt>
      <trkpt lat="42.52378" lon="2.06358">
        <ele>1853.11</ele>
        <time>2021-10-20T22:00:04Z</time>
      </trkpt>
      <trkpt lat="42.52355" lon="2.0638">
        <ele>1850.83</ele>
        <time>2021-10-20T22:00:04Z</time>
      </trkpt>
      <trkpt lat="42.5233" lon="2.06421">
        <ele>1850.55</ele>
        <time>2021-10-20T22:00:04Z</time>
      </trkpt>
      <trkpt lat="42.52317" lon="2.06459">
        <ele>1850.01</ele>
        <time>2021-10-20T22:00:04Z</time>
      </trkpt>
      <trkpt lat="42.52314" lon="2.0647">
        <ele>1849.95</ele>
        <time>2021-10-20T22:00:04Z</time>
      </trkpt>
      <trkpt lat="42.52308" lon="2.06486">
        <ele>1849.18</ele>
        <time>2021-10-20T22:00:04Z</time>
      </trkpt>
      <trkpt lat="42.52303" lon="2.065">
        <ele>1848.55</ele>
        <time>2021-10-20T22:00:04Z</time>
      </trkpt>
      <trkpt lat="42.52297" lon="2.0651">
        <ele>1847.96</ele>
        <time>2021-10-20T22:00:04Z</time>
      </trkpt>
      <trkpt lat="42.52293" lon="2.06524">
        <ele>1847.75</ele>
        <time>2021-10-20T22:00:04Z</time>
      </trkpt>
      <trkpt lat="42.52287" lon="2.06534">
        <ele>1847.48</ele>
        <time>2021-10-20T22:00:04Z</time>
      </trkpt>
      <trkpt lat="42.52278" lon="2.06545">
        <ele>1847.12</ele>
        <time>2021-10-20T22:00:04Z</time>
      </trkpt>
      <trkpt lat="42.52264" lon="2.06562">
        <ele>1846.45</ele>
        <time>2021-10-20T22:00:04Z</time>
      </trkpt>
      <trkpt lat="42.52254" lon="2.06573">
        <ele>1845.61</ele>
        <time>2021-10-20T22:00:04Z</time>
      </trkpt>
      <trkpt lat="42.52242" lon="2.06594">
        <ele>1843.89</ele>
        <time>2021-10-20T22:00:04Z</time>
      </trkpt>
      <trkpt lat="42.52237" lon="2.06607">
        <ele>1843.44</ele>
        <time>2021-10-20T22:00:04Z</time>
      </trkpt>
      <trkpt lat="42.52224" lon="2.06638">
        <ele>1841.5</ele>
        <time>2021-10-20T22:00:04Z</time>
      </trkpt>
      <trkpt lat="42.52212" lon="2.06657">
        <ele>1840.27</ele>
        <time>2021-10-20T22:00:04Z</time>
      </trkpt>
      <trkpt lat="42.522" lon="2.06673">
        <ele>1839.53</ele>
        <time>2021-10-20T22:00:04Z</time>
      </trkpt>
      <trkpt lat="42.52189" lon="2.06694">
        <ele>1838.67</ele>
        <time>2021-10-20T22:00:04Z</time>
      </trkpt>
      <trkpt lat="42.52184" lon="2.06706">
        <ele>1837.52</ele>
        <time>2021-10-20T22:00:04Z</time>
      </trkpt>
      <trkpt lat="42.52171" lon="2.06732">
        <ele>1834.99</ele>
        <time>2021-10-20T22:00:04Z</time>
      </trkpt>
      <trkpt lat="42.5216" lon="2.06749">
        <ele>1833.25</ele>
        <time>2021-10-20T22:00:04Z</time>
      </trkpt>
      <trkpt lat="42.52147" lon="2.06766">
        <ele>1829.61</ele>
        <time>2021-10-20T22:00:04Z</time>
      </trkpt>
      <trkpt lat="42.52141" lon="2.06775">
        <ele>1828.03</ele>
        <time>2021-10-20T22:00:04Z</time>
      </trkpt>
      <trkpt lat="42.52134" lon="2.06783">
        <ele>1826.54</ele>
        <time>2021-10-20T22:00:04Z</time>
      </trkpt>
      <trkpt lat="42.52125" lon="2.0679">
        <ele>1825.04</ele>
        <time>2021-10-20T22:00:04Z</time>
      </trkpt>
      <trkpt lat="42.52095" lon="2.06792">
        <ele>1818.25</ele>
        <time>2021-10-20T22:00:04Z</time>
      </trkpt>
      <trkpt lat="42.5208" lon="2.06813">
        <ele>1814.16</ele>
        <time>2021-10-20T22:00:04Z</time>
      </trkpt>
      <trkpt lat="42.52071" lon="2.06829">
        <ele>1811.53</ele>
        <time>2021-10-20T22:00:04Z</time>
      </trkpt>
      <trkpt lat="42.52072" lon="2.06851">
        <ele>1810.63</ele>
        <time>2021-10-20T22:00:04Z</time>
      </trkpt>
      <trkpt lat="42.52064" lon="2.06874">
        <ele>1808.21</ele>
        <time>2021-10-20T22:00:04Z</time>
      </trkpt>
      <trkpt lat="42.52046" lon="2.06877">
        <ele>1804.92</ele>
        <time>2021-10-20T22:00:04Z</time>
      </trkpt>
      <trkpt lat="42.52026" lon="2.06876">
        <ele>1800.65</ele>
        <time>2021-10-20T22:00:04Z</time>
      </trkpt>
      <trkpt lat="42.52007" lon="2.06882">
        <ele>1796.68</ele>
        <time>2021-10-20T22:00:04Z</time>
      </trkpt>
      <trkpt lat="42.51993" lon="2.06897">
        <ele>1794.13</ele>
        <time>2021-10-20T22:00:04Z</time>
      </trkpt>
      <trkpt lat="42.51976" lon="2.06914">
        <ele>1791.54</ele>
        <time>2021-10-20T22:00:04Z</time>
      </trkpt>
      <trkpt lat="42.51958" lon="2.06924">
        <ele>1789.06</ele>
        <time>2021-10-20T22:00:04Z</time>
      </trkpt>
      <trkpt lat="42.51941" lon="2.06933">
        <ele>1786.98</ele>
        <time>2021-10-20T22:00:04Z</time>
      </trkpt>
      <trkpt lat="42.51924" lon="2.06939">
        <ele>1784.91</ele>
        <time>2021-10-20T22:00:04Z</time>
      </trkpt>
      <trkpt lat="42.51902" lon="2.06945">
        <ele>1782.81</ele>
        <time>2021-10-20T22:00:04Z</time>
      </trkpt>
      <trkpt lat="42.51891" lon="2.06938">
        <ele>1781.07</ele>
        <time>2021-10-20T22:00:04Z</time>
      </trkpt>
      <trkpt lat="42.51876" lon="2.06937">
        <ele>1779.46</ele>
        <time>2021-10-20T22:00:04Z</time>
      </trkpt>
      <trkpt lat="42.51858" lon="2.06942">
        <ele>1778.06</ele>
        <time>2021-10-20T22:00:04Z</time>
      </trkpt>
      <trkpt lat="42.51847" lon="2.06944">
        <ele>1777.11</ele>
        <time>2021-10-20T22:00:04Z</time>
      </trkpt>
      <trkpt lat="42.51832" lon="2.06941">
        <ele>1775.11</ele>
        <time>2021-10-20T22:00:04Z</time>
      </trkpt>
      <trkpt lat="42.51814" lon="2.06935">
        <ele>1772.49</ele>
        <time>2021-10-20T22:00:04Z</time>
      </trkpt>
      <trkpt lat="42.51793" lon="2.06928">
        <ele>1769.43</ele>
        <time>2021-10-20T22:00:04Z</time>
      </trkpt>
      <trkpt lat="42.51777" lon="2.0693">
        <ele>1767.72</ele>
        <time>2021-10-20T22:00:04Z</time>
      </trkpt>
      <trkpt lat="42.51759" lon="2.06937">
        <ele>1765.38</ele>
        <time>2021-10-20T22:00:04Z</time>
      </trkpt>
      <trkpt lat="42.51743" lon="2.06939">
        <ele>1762.9</ele>
        <time>2021-10-20T22:00:04Z</time>
      </trkpt>
      <trkpt lat="42.51727" lon="2.06942">
        <ele>1760.43</ele>
        <time>2021-10-20T22:00:04Z</time>
      </trkpt>
      <trkpt lat="42.51718" lon="2.06954">
        <ele>1759.53</ele>
        <time>2021-10-20T22:00:04Z</time>
      </trkpt>
      <trkpt lat="42.51706" lon="2.06971">
        <ele>1758.7</ele>
        <time>2021-10-20T22:00:04Z</time>
      </trkpt>
      <trkpt lat="42.517" lon="2.06986">
        <ele>1758.77</ele>
        <time>2021-10-20T22:00:04Z</time>
      </trkpt>
      <trkpt lat="42.51685" lon="2.06991">
        <ele>1756.58</ele>
        <time>2021-10-20T22:00:04Z</time>
      </trkpt>
      <trkpt lat="42.51666" lon="2.06988">
        <ele>1753.24</ele>
        <time>2021-10-20T22:00:04Z</time>
      </trkpt>
      <trkpt lat="42.5165" lon="2.06996">
        <ele>1750.86</ele>
        <time>2021-10-20T22:00:04Z</time>
      </trkpt>
      <trkpt lat="42.51646" lon="2.07012">
        <ele>1750.69</ele>
        <time>2021-10-20T22:00:04Z</time>
      </trkpt>
      <trkpt lat="42.51638" lon="2.0703">
        <ele>1750</ele>
        <time>2021-10-20T22:00:04Z</time>
      </trkpt>
      <trkpt lat="42.5163" lon="2.0705">
        <ele>1749.83</ele>
        <time>2021-10-20T22:00:04Z</time>
      </trkpt>
      <trkpt lat="42.51625" lon="2.07067">
        <ele>1749.83</ele>
        <time>2021-10-20T22:00:04Z</time>
      </trkpt>
      <trkpt lat="42.51617" lon="2.0708">
        <ele>1749.19</ele>
        <time>2021-10-20T22:00:04Z</time>
      </trkpt>
      <trkpt lat="42.51605" lon="2.07097">
        <ele>1748.34</ele>
        <time>2021-10-20T22:00:04Z</time>
      </trkpt>
      <trkpt lat="42.5159" lon="2.07117">
        <ele>1748.19</ele>
        <time>2021-10-20T22:00:04Z</time>
      </trkpt>
      <trkpt lat="42.51579" lon="2.07132">
        <ele>1748.12</ele>
        <time>2021-10-20T22:00:04Z</time>
      </trkpt>
      <trkpt lat="42.51565" lon="2.07147">
        <ele>1747.65</ele>
        <time>2021-10-20T22:00:04Z</time>
      </trkpt>
      <trkpt lat="42.51536" lon="2.0715">
        <ele>1743.75</ele>
        <time>2021-10-20T22:00:04Z</time>
      </trkpt>
      <trkpt lat="42.51534" lon="2.07164">
        <ele>1743.94</ele>
        <time>2021-10-20T22:00:04Z</time>
      </trkpt>
      <trkpt lat="42.51539" lon="2.07184">
        <ele>1744.63</ele>
        <time>2021-10-20T22:00:04Z</time>
      </trkpt>
      <trkpt lat="42.51536" lon="2.07203">
        <ele>1743.95</ele>
        <time>2021-10-20T22:00:04Z</time>
      </trkpt>
      <trkpt lat="42.51529" lon="2.07222">
        <ele>1742.4</ele>
        <time>2021-10-20T22:00:04Z</time>
      </trkpt>
      <trkpt lat="42.51525" lon="2.07244">
        <ele>1740.66</ele>
        <time>2021-10-20T22:00:04Z</time>
      </trkpt>
      <trkpt lat="42.51533" lon="2.07266">
        <ele>1740.83</ele>
        <time>2021-10-20T22:00:04Z</time>
      </trkpt>
      <trkpt lat="42.51545" lon="2.07279">
        <ele>1742.09</ele>
        <time>2021-10-20T22:00:04Z</time>
      </trkpt>
      <trkpt lat="42.51556" lon="2.07294">
        <ele>1742.82</ele>
        <time>2021-10-20T22:00:04Z</time>
      </trkpt>
      <trkpt lat="42.51567" lon="2.07311">
        <ele>1743.19</ele>
        <time>2021-10-20T22:00:04Z</time>
      </trkpt>
      <trkpt lat="42.51565" lon="2.07326">
        <ele>1741.67</ele>
        <time>2021-10-20T22:00:04Z</time>
      </trkpt>
      <trkpt lat="42.51563" lon="2.07372">
        <ele>1737.91</ele>
        <time>2021-10-20T22:00:04Z</time>
      </trkpt>
      <trkpt lat="42.51569" lon="2.07388">
        <ele>1737.82</ele>
        <time>2021-10-20T22:00:04Z</time>
      </trkpt>
      <trkpt lat="42.51568" lon="2.07405">
        <ele>1736.99</ele>
        <time>2021-10-20T22:00:04Z</time>
      </trkpt>
      <trkpt lat="42.51574" lon="2.07431">
        <ele>1736.48</ele>
        <time>2021-10-20T22:00:04Z</time>
      </trkpt>
      <trkpt lat="42.51581" lon="2.07455">
        <ele>1736.56</ele>
        <time>2021-10-20T22:00:04Z</time>
      </trkpt>
      <trkpt lat="42.51589" lon="2.07507">
        <ele>1736.3</ele>
        <time>2021-10-20T22:00:04Z</time>
      </trkpt>
      <trkpt lat="42.51609" lon="2.07498">
        <ele>1739.03</ele>
        <time>2021-10-20T22:00:04Z</time>
      </trkpt>
      <trkpt lat="42.51626" lon="2.07487">
        <ele>1741.43</ele>
        <time>2021-10-20T22:00:04Z</time>
      </trkpt>
      <trkpt lat="42.51639" lon="2.07472">
        <ele>1743.31</ele>
        <time>2021-10-20T22:00:04Z</time>
      </trkpt>
      <trkpt lat="42.51652" lon="2.07461">
        <ele>1745.22</ele>
        <time>2021-10-20T22:00:04Z</time>
      </trkpt>
      <trkpt lat="42.51665" lon="2.07449">
        <ele>1747.11</ele>
        <time>2021-10-20T22:00:04Z</time>
      </trkpt>
      <trkpt lat="42.51684" lon="2.07426">
        <ele>1750.42</ele>
        <time>2021-10-20T22:00:04Z</time>
      </trkpt>
      <trkpt lat="42.51696" lon="2.07414">
        <ele>1752.87</ele>
        <time>2021-10-20T22:00:04Z</time>
      </trkpt>
      <trkpt lat="42.51718" lon="2.07405">
        <ele>1756.69</ele>
        <time>2021-10-20T22:00:04Z</time>
      </trkpt>
      <trkpt lat="42.51722" lon="2.07392">
        <ele>1758.21</ele>
        <time>2021-10-20T22:00:04Z</time>
      </trkpt>
      <trkpt lat="42.51732" lon="2.07373">
        <ele>1760.97</ele>
        <time>2021-10-20T22:00:04Z</time>
      </trkpt>
      <trkpt lat="42.51744" lon="2.07341">
        <ele>1764.6</ele>
        <time>2021-10-20T22:00:04Z</time>
      </trkpt>
      <trkpt lat="42.51748" lon="2.07322">
        <ele>1766.21</ele>
        <time>2021-10-20T22:00:04Z</time>
      </trkpt>
      <trkpt lat="42.51757" lon="2.07305">
        <ele>1768.24</ele>
        <time>2021-10-20T22:00:04Z</time>
      </trkpt>
      <trkpt lat="42.51761" lon="2.07293">
        <ele>1769.37</ele>
        <time>2021-10-20T22:00:04Z</time>
      </trkpt>
      <trkpt lat="42.5177" lon="2.07285">
        <ele>1770.88</ele>
        <time>2021-10-20T22:00:04Z</time>
      </trkpt>
      <trkpt lat="42.51784" lon="2.07287">
        <ele>1772.55</ele>
        <time>2021-10-20T22:00:04Z</time>
      </trkpt>
      <trkpt lat="42.51795" lon="2.07279">
        <ele>1774.51</ele>
        <time>2021-10-20T22:00:04Z</time>
      </trkpt>
      <trkpt lat="42.51801" lon="2.07266">
        <ele>1775.96</ele>
        <time>2021-10-20T22:00:04Z</time>
      </trkpt>
      <trkpt lat="42.51808" lon="2.07246">
        <ele>1777.79</ele>
        <time>2021-10-20T22:00:04Z</time>
      </trkpt>
      <trkpt lat="42.51822" lon="2.07238">
        <ele>1779.84</ele>
        <time>2021-10-20T22:00:04Z</time>
      </trkpt>
      <trkpt lat="42.51836" lon="2.07228">
        <ele>1781.9</ele>
        <time>2021-10-20T22:00:04Z</time>
      </trkpt>
      <trkpt lat="42.51843" lon="2.07211">
        <ele>1783.72</ele>
        <time>2021-10-20T22:00:04Z</time>
      </trkpt>
      <trkpt lat="42.51851" lon="2.07196">
        <ele>1785.34</ele>
        <time>2021-10-20T22:00:04Z</time>
      </trkpt>
      <trkpt lat="42.51856" lon="2.07176">
        <ele>1786.7</ele>
        <time>2021-10-20T22:00:04Z</time>
      </trkpt>
      <trkpt lat="42.51865" lon="2.07141">
        <ele>1788.61</ele>
        <time>2021-10-20T22:00:04Z</time>
      </trkpt>
      <trkpt lat="42.5187" lon="2.0712">
        <ele>1789.62</ele>
        <time>2021-10-20T22:00:04Z</time>
      </trkpt>
      <trkpt lat="42.51874" lon="2.07108">
        <ele>1790.21</ele>
        <time>2021-10-20T22:00:04Z</time>
      </trkpt>
      <trkpt lat="42.51881" lon="2.07097">
        <ele>1790.84</ele>
        <time>2021-10-20T22:00:04Z</time>
      </trkpt>
      <trkpt lat="42.51891" lon="2.07087">
        <ele>1791.07</ele>
        <time>2021-10-20T22:00:04Z</time>
      </trkpt>
      <trkpt lat="42.519" lon="2.0708">
        <ele>1791.09</ele>
        <time>2021-10-20T22:00:04Z</time>
      </trkpt>
      <trkpt lat="42.51918" lon="2.07068">
        <ele>1791.5</ele>
        <time>2021-10-20T22:00:04Z</time>
      </trkpt>
      <trkpt lat="42.51928" lon="2.07053">
        <ele>1791.83</ele>
        <time>2021-10-20T22:00:04Z</time>
      </trkpt>
      <trkpt lat="42.51938" lon="2.07043">
        <ele>1792.39</ele>
        <time>2021-10-20T22:00:04Z</time>
      </trkpt>
      <trkpt lat="42.51948" lon="2.07026">
        <ele>1792.92</ele>
        <time>2021-10-20T22:00:04Z</time>
      </trkpt>
      <trkpt lat="42.51962" lon="2.07015">
        <ele>1793.74</ele>
        <time>2021-10-20T22:00:04Z</time>
      </trkpt>
      <trkpt lat="42.51978" lon="2.07012">
        <ele>1795.13</ele>
        <time>2021-10-20T22:00:04Z</time>
      </trkpt>
      <trkpt lat="42.51992" lon="2.0703">
        <ele>1796.84</ele>
        <time>2021-10-20T22:00:04Z</time>
      </trkpt>
      <trkpt lat="42.51998" lon="2.07052">
        <ele>1797.38</ele>
        <time>2021-10-20T22:00:04Z</time>
      </trkpt>
      <trkpt lat="42.52005" lon="2.07077">
        <ele>1797.94</ele>
        <time>2021-10-20T22:00:04Z</time>
      </trkpt>
      <trkpt lat="42.52016" lon="2.07079">
        <ele>1798.92</ele>
        <time>2021-10-20T22:00:04Z</time>
      </trkpt>
      <trkpt lat="42.52032" lon="2.07077">
        <ele>1800.38</ele>
        <time>2021-10-20T22:00:04Z</time>
      </trkpt>
      <trkpt lat="42.52047" lon="2.07076">
        <ele>1801.76</ele>
        <time>2021-10-20T22:00:04Z</time>
      </trkpt>
      <trkpt lat="42.52066" lon="2.07067">
        <ele>1803.04</ele>
        <time>2021-10-20T22:00:04Z</time>
      </trkpt>
      <trkpt lat="42.52089" lon="2.07059">
        <ele>1804.35</ele>
        <time>2021-10-20T22:00:04Z</time>
      </trkpt>
      <trkpt lat="42.52103" lon="2.07052">
        <ele>1805.23</ele>
        <time>2021-10-20T22:00:04Z</time>
      </trkpt>
      <trkpt lat="42.52122" lon="2.07032">
        <ele>1806.74</ele>
        <time>2021-10-20T22:00:04Z</time>
      </trkpt>
      <trkpt lat="42.52132" lon="2.07009">
        <ele>1807.55</ele>
        <time>2021-10-20T22:00:04Z</time>
      </trkpt>
      <trkpt lat="42.52147" lon="2.06982">
        <ele>1808.9</ele>
        <time>2021-10-20T22:00:04Z</time>
      </trkpt>
      <trkpt lat="42.5216" lon="2.06955">
        <ele>1810.57</ele>
        <time>2021-10-20T22:00:04Z</time>
      </trkpt>
      <trkpt lat="42.52178" lon="2.06938">
        <ele>1812.72</ele>
        <time>2021-10-20T22:00:04Z</time>
      </trkpt>
      <trkpt lat="42.52196" lon="2.06917">
        <ele>1814.97</ele>
        <time>2021-10-20T22:00:04Z</time>
      </trkpt>
      <trkpt lat="42.52201" lon="2.06907">
        <ele>1815.83</ele>
        <time>2021-10-20T22:00:04Z</time>
      </trkpt>
      <trkpt lat="42.52208" lon="2.06896">
        <ele>1816.72</ele>
        <time>2021-10-20T22:00:04Z</time>
      </trkpt>
      <trkpt lat="42.52228" lon="2.06878">
        <ele>1817.92</ele>
        <time>2021-10-20T22:00:04Z</time>
      </trkpt>
      <trkpt lat="42.52239" lon="2.06868">
        <ele>1818.71</ele>
        <time>2021-10-20T22:00:04Z</time>
      </trkpt>
      <trkpt lat="42.52252" lon="2.06857">
        <ele>1819.59</ele>
        <time>2021-10-20T22:00:04Z</time>
      </trkpt>
      <trkpt lat="42.52267" lon="2.06846">
        <ele>1819.55</ele>
        <time>2021-10-20T22:00:04Z</time>
      </trkpt>
      <trkpt lat="42.52279" lon="2.06836">
        <ele>1819.23</ele>
        <time>2021-10-20T22:00:04Z</time>
      </trkpt>
      <trkpt lat="42.52295" lon="2.06822">
        <ele>1818.98</ele>
        <time>2021-10-20T22:00:04Z</time>
      </trkpt>
      <trkpt lat="42.52309" lon="2.06811">
        <ele>1818.56</ele>
        <time>2021-10-20T22:00:04Z</time>
      </trkpt>
      <trkpt lat="42.52321" lon="2.06804">
        <ele>1817.71</ele>
        <time>2021-10-20T22:00:04Z</time>
      </trkpt>
      <trkpt lat="42.52334" lon="2.06792">
        <ele>1816.72</ele>
        <time>2021-10-20T22:00:04Z</time>
      </trkpt>
      <trkpt lat="42.52344" lon="2.06783">
        <ele>1815.57</ele>
        <time>2021-10-20T22:00:04Z</time>
      </trkpt>
      <trkpt lat="42.52353" lon="2.06768">
        <ele>1815.44</ele>
        <time>2021-10-20T22:00:04Z</time>
      </trkpt>
      <trkpt lat="42.52363" lon="2.06755">
        <ele>1814.81</ele>
        <time>2021-10-20T22:00:04Z</time>
      </trkpt>
      <trkpt lat="42.52374" lon="2.0674">
        <ele>1814.65</ele>
        <time>2021-10-20T22:00:04Z</time>
      </trkpt>
      <trkpt lat="42.52386" lon="2.06727">
        <ele>1814.31</ele>
        <time>2021-10-20T22:00:04Z</time>
      </trkpt>
      <trkpt lat="42.52401" lon="2.06714">
        <ele>1813.53</ele>
        <time>2021-10-20T22:00:04Z</time>
      </trkpt>
      <trkpt lat="42.52413" lon="2.06701">
        <ele>1813.64</ele>
        <time>2021-10-20T22:00:04Z</time>
      </trkpt>
      <trkpt lat="42.52427" lon="2.06686">
        <ele>1813.91</ele>
        <time>2021-10-20T22:00:04Z</time>
      </trkpt>
      <trkpt lat="42.52436" lon="2.06674">
        <ele>1814.42</ele>
        <time>2021-10-20T22:00:04Z</time>
      </trkpt>
      <trkpt lat="42.52448" lon="2.06663">
        <ele>1814.05</ele>
        <time>2021-10-20T22:00:04Z</time>
      </trkpt>
      <trkpt lat="42.52463" lon="2.06653">
        <ele>1813.01</ele>
        <time>2021-10-20T22:00:04Z</time>
      </trkpt>
      <trkpt lat="42.52473" lon="2.06638">
        <ele>1813.49</ele>
        <time>2021-10-20T22:00:04Z</time>
      </trkpt>
      <trkpt lat="42.5248" lon="2.06628">
        <ele>1813.71</ele>
        <time>2021-10-20T22:00:04Z</time>
      </trkpt>
      <trkpt lat="42.52489" lon="2.06612">
        <ele>1814.54</ele>
        <time>2021-10-20T22:00:04Z</time>
      </trkpt>
      <trkpt lat="42.52495" lon="2.06601">
        <ele>1814.84</ele>
        <time>2021-10-20T22:00:04Z</time>
      </trkpt>
      <trkpt lat="42.52504" lon="2.06589">
        <ele>1814.62</ele>
        <time>2021-10-20T22:00:04Z</time>
      </trkpt>
      <trkpt lat="42.52511" lon="2.06579">
        <ele>1814.55</ele>
        <time>2021-10-20T22:00:04Z</time>
      </trkpt>
      <trkpt lat="42.52516" lon="2.06567">
        <ele>1815.2</ele>
        <time>2021-10-20T22:00:04Z</time>
      </trkpt>
      <trkpt lat="42.52523" lon="2.06556">
        <ele>1815.28</ele>
        <time>2021-10-20T22:00:04Z</time>
      </trkpt>
      <trkpt lat="42.52529" lon="2.06546">
        <ele>1815.42</ele>
        <time>2021-10-20T22:00:04Z</time>
      </trkpt>
      <trkpt lat="42.52539" lon="2.06532">
        <ele>1814.77</ele>
        <time>2021-10-20T22:00:04Z</time>
      </trkpt>
      <trkpt lat="42.52557" lon="2.06499">
        <ele>1814.11</ele>
        <time>2021-10-20T22:00:04Z</time>
      </trkpt>
      <trkpt lat="42.52568" lon="2.06484">
        <ele>1813.03</ele>
        <time>2021-10-20T22:00:04Z</time>
      </trkpt>
      <trkpt lat="42.52572" lon="2.06471">
        <ele>1813.68</ele>
        <time>2021-10-20T22:00:04Z</time>
      </trkpt>
      <trkpt lat="42.52578" lon="2.06457">
        <ele>1814.06</ele>
        <time>2021-10-20T22:00:04Z</time>
      </trkpt>
      <trkpt lat="42.52583" lon="2.06441">
        <ele>1815</ele>
        <time>2021-10-20T22:00:04Z</time>
      </trkpt>
      <trkpt lat="42.52587" lon="2.06428">
        <ele>1815.79</ele>
        <time>2021-10-20T22:00:04Z</time>
      </trkpt>
      <trkpt lat="42.52594" lon="2.06415">
        <ele>1815.75</ele>
        <time>2021-10-20T22:00:04Z</time>
      </trkpt>
      <trkpt lat="42.52606" lon="2.06397">
        <ele>1815.55</ele>
        <time>2021-10-20T22:00:04Z</time>
      </trkpt>
      <trkpt lat="42.52613" lon="2.06382">
        <ele>1816.7</ele>
        <time>2021-10-20T22:00:04Z</time>
      </trkpt>
      <trkpt lat="42.52627" lon="2.06362">
        <ele>1816.67</ele>
        <time>2021-10-20T22:00:04Z</time>
      </trkpt>
      <trkpt lat="42.52644" lon="2.0634">
        <ele>1816.1</ele>
        <time>2021-10-20T22:00:04Z</time>
      </trkpt>
      <trkpt lat="42.52654" lon="2.06329">
        <ele>1815.56</ele>
        <time>2021-10-20T22:00:04Z</time>
      </trkpt>
      <trkpt lat="42.52668" lon="2.06319">
        <ele>1813.93</ele>
        <time>2021-10-20T22:00:04Z</time>
      </trkpt>
      <trkpt lat="42.52686" lon="2.06311">
        <ele>1811.73</ele>
        <time>2021-10-20T22:00:04Z</time>
      </trkpt>
      <trkpt lat="42.52702" lon="2.06303">
        <ele>1810.05</ele>
        <time>2021-10-20T22:00:04Z</time>
      </trkpt>
      <trkpt lat="42.52718" lon="2.06294">
        <ele>1808.53</ele>
        <time>2021-10-20T22:00:04Z</time>
      </trkpt>
      <trkpt lat="42.52735" lon="2.06281">
        <ele>1807.69</ele>
        <time>2021-10-20T22:00:04Z</time>
      </trkpt>
      <trkpt lat="42.52748" lon="2.06268">
        <ele>1808.48</ele>
        <time>2021-10-20T22:00:04Z</time>
      </trkpt>
      <trkpt lat="42.52762" lon="2.06255">
        <ele>1808.36</ele>
        <time>2021-10-20T22:00:04Z</time>
      </trkpt>
      <trkpt lat="42.52776" lon="2.06241">
        <ele>1808.27</ele>
        <time>2021-10-20T22:00:04Z</time>
      </trkpt>
      <trkpt lat="42.52788" lon="2.0623">
        <ele>1807.88</ele>
        <time>2021-10-20T22:00:04Z</time>
      </trkpt>
      <trkpt lat="42.52798" lon="2.0622">
        <ele>1807.62</ele>
        <time>2021-10-20T22:00:04Z</time>
      </trkpt>
      <trkpt lat="42.52814" lon="2.06208">
        <ele>1806.84</ele>
        <time>2021-10-20T22:00:04Z</time>
      </trkpt>
      <trkpt lat="42.52824" lon="2.06193">
        <ele>1807.48</ele>
        <time>2021-10-20T22:00:04Z</time>
      </trkpt>
      <trkpt lat="42.52831" lon="2.06183">
        <ele>1807.47</ele>
        <time>2021-10-20T22:00:04Z</time>
      </trkpt>
      <trkpt lat="42.52847" lon="2.06171">
        <ele>1806.28</ele>
        <time>2021-10-20T22:00:04Z</time>
      </trkpt>
      <trkpt lat="42.52861" lon="2.06167">
        <ele>1804.59</ele>
        <time>2021-10-20T22:00:04Z</time>
      </trkpt>
      <trkpt lat="42.52873" lon="2.06174">
        <ele>1802.33</ele>
        <time>2021-10-20T22:00:04Z</time>
      </trkpt>
      <trkpt lat="42.52886" lon="2.0618">
        <ele>1800.26</ele>
        <time>2021-10-20T22:00:04Z</time>
      </trkpt>
      <trkpt lat="42.52901" lon="2.06181">
        <ele>1798.38</ele>
        <time>2021-10-20T22:00:04Z</time>
      </trkpt>
      <trkpt lat="42.5292" lon="2.0618">
        <ele>1796.15</ele>
        <time>2021-10-20T22:00:04Z</time>
      </trkpt>
      <trkpt lat="42.52935" lon="2.0617">
        <ele>1794.95</ele>
        <time>2021-10-20T22:00:04Z</time>
      </trkpt>
      <trkpt lat="42.52944" lon="2.06158">
        <ele>1794.54</ele>
        <time>2021-10-20T22:00:04Z</time>
      </trkpt>
      <trkpt lat="42.52952" lon="2.06147">
        <ele>1794.17</ele>
        <time>2021-10-20T22:00:04Z</time>
      </trkpt>
      <trkpt lat="42.5296" lon="2.06132">
        <ele>1793.97</ele>
        <time>2021-10-20T22:00:04Z</time>
      </trkpt>
      <trkpt lat="42.52966" lon="2.06118">
        <ele>1793.68</ele>
        <time>2021-10-20T22:00:04Z</time>
      </trkpt>
      <trkpt lat="42.52971" lon="2.06101">
        <ele>1793.62</ele>
        <time>2021-10-20T22:00:04Z</time>
      </trkpt>
      <trkpt lat="42.52979" lon="2.06085">
        <ele>1793.21</ele>
        <time>2021-10-20T22:00:04Z</time>
      </trkpt>
      <trkpt lat="42.52986" lon="2.06069">
        <ele>1792.96</ele>
        <time>2021-10-20T22:00:04Z</time>
      </trkpt>
      <trkpt lat="42.52997" lon="2.06053">
        <ele>1792.75</ele>
        <time>2021-10-20T22:00:04Z</time>
      </trkpt>
      <trkpt lat="42.53007" lon="2.06039">
        <ele>1792.81</ele>
        <time>2021-10-20T22:00:04Z</time>
      </trkpt>
      <trkpt lat="42.53015" lon="2.06026">
        <ele>1793.16</ele>
        <time>2021-10-20T22:00:04Z</time>
      </trkpt>
      <trkpt lat="42.53022" lon="2.06014">
        <ele>1794.19</ele>
        <time>2021-10-20T22:00:04Z</time>
      </trkpt>
      <trkpt lat="42.53027" lon="2.05996">
        <ele>1795.79</ele>
        <time>2021-10-20T22:00:04Z</time>
      </trkpt>
      <trkpt lat="42.53033" lon="2.05976">
        <ele>1797.99</ele>
        <time>2021-10-20T22:00:04Z</time>
      </trkpt>
      <trkpt lat="42.53054" lon="2.05965">
        <ele>1798.21</ele>
        <time>2021-10-20T22:00:04Z</time>
      </trkpt>
      <trkpt lat="42.53065" lon="2.05953">
        <ele>1798.38</ele>
        <time>2021-10-20T22:00:04Z</time>
      </trkpt>
      <trkpt lat="42.53072" lon="2.05942">
        <ele>1798.41</ele>
        <time>2021-10-20T22:00:04Z</time>
      </trkpt>
      <trkpt lat="42.5308" lon="2.05928">
        <ele>1798.17</ele>
        <time>2021-10-20T22:00:04Z</time>
      </trkpt>
      <trkpt lat="42.5309" lon="2.05908">
        <ele>1800.67</ele>
        <time>2021-10-20T22:00:04Z</time>
      </trkpt>
      <trkpt lat="42.53101" lon="2.05898">
        <ele>1802.37</ele>
        <time>2021-10-20T22:00:04Z</time>
      </trkpt>
      <trkpt lat="42.53117" lon="2.05894">
        <ele>1803.3</ele>
        <time>2021-10-20T22:00:04Z</time>
      </trkpt>
      <trkpt lat="42.53133" lon="2.05893">
        <ele>1803.79</ele>
        <time>2021-10-20T22:00:04Z</time>
      </trkpt>
      <trkpt lat="42.53145" lon="2.05892">
        <ele>1804.19</ele>
        <time>2021-10-20T22:00:04Z</time>
      </trkpt>
      <trkpt lat="42.53165" lon="2.05885">
        <ele>1805.09</ele>
        <time>2021-10-20T22:00:04Z</time>
      </trkpt>
      <trkpt lat="42.53182" lon="2.05876">
        <ele>1805.91</ele>
        <time>2021-10-20T22:00:04Z</time>
      </trkpt>
      <trkpt lat="42.53197" lon="2.05871">
        <ele>1806.16</ele>
        <time>2021-10-20T22:00:04Z</time>
      </trkpt>
      <trkpt lat="42.53214" lon="2.05869">
        <ele>1806.01</ele>
        <time>2021-10-20T22:00:04Z</time>
      </trkpt>
      <trkpt lat="42.53229" lon="2.05861">
        <ele>1806.08</ele>
        <time>2021-10-20T22:00:04Z</time>
      </trkpt>
      <trkpt lat="42.53243" lon="2.05857">
        <ele>1805.59</ele>
        <time>2021-10-20T22:00:04Z</time>
      </trkpt>
      <trkpt lat="42.53258" lon="2.05848">
        <ele>1805.39</ele>
        <time>2021-10-20T22:00:04Z</time>
      </trkpt>
      <trkpt lat="42.53267" lon="2.05838">
        <ele>1805.45</ele>
        <time>2021-10-20T22:00:04Z</time>
      </trkpt>
      <trkpt lat="42.53279" lon="2.05827">
        <ele>1805.11</ele>
        <time>2021-10-20T22:00:04Z</time>
      </trkpt>
      <trkpt lat="42.53293" lon="2.05816">
        <ele>1804.23</ele>
        <time>2021-10-20T22:00:04Z</time>
      </trkpt>
      <trkpt lat="42.53305" lon="2.05806">
        <ele>1803.2</ele>
        <time>2021-10-20T22:00:04Z</time>
      </trkpt>
      <trkpt lat="42.53314" lon="2.05795">
        <ele>1802.43</ele>
        <time>2021-10-20T22:00:04Z</time>
      </trkpt>
      <trkpt lat="42.53325" lon="2.05784">
        <ele>1801.31</ele>
        <time>2021-10-20T22:00:04Z</time>
      </trkpt>
      <trkpt lat="42.53333" lon="2.05774">
        <ele>1800.48</ele>
        <time>2021-10-20T22:00:04Z</time>
      </trkpt>
      <trkpt lat="42.53345" lon="2.05766">
        <ele>1798.84</ele>
        <time>2021-10-20T22:00:04Z</time>
      </trkpt>
      <trkpt lat="42.53361" lon="2.05762">
        <ele>1796.6</ele>
        <time>2021-10-20T22:00:04Z</time>
      </trkpt>
      <trkpt lat="42.53377" lon="2.05761">
        <ele>1795.02</ele>
        <time>2021-10-20T22:00:04Z</time>
      </trkpt>
      <trkpt lat="42.53395" lon="2.05755">
        <ele>1793.15</ele>
        <time>2021-10-20T22:00:04Z</time>
      </trkpt>
      <trkpt lat="42.53407" lon="2.05746">
        <ele>1791.74</ele>
        <time>2021-10-20T22:00:04Z</time>
      </trkpt>
      <trkpt lat="42.53423" lon="2.05739">
        <ele>1789.86</ele>
        <time>2021-10-20T22:00:04Z</time>
      </trkpt>
      <trkpt lat="42.5343" lon="2.05729">
        <ele>1788.56</ele>
        <time>2021-10-20T22:00:04Z</time>
      </trkpt>
      <trkpt lat="42.53435" lon="2.05717">
        <ele>1787.39</ele>
        <time>2021-10-20T22:00:04Z</time>
      </trkpt>
      <trkpt lat="42.53443" lon="2.05709">
        <ele>1785.74</ele>
        <time>2021-10-20T22:00:04Z</time>
      </trkpt>
      <trkpt lat="42.53457" lon="2.05699">
        <ele>1783.2</ele>
        <time>2021-10-20T22:00:04Z</time>
      </trkpt>
      <trkpt lat="42.53469" lon="2.05693">
        <ele>1781.25</ele>
        <time>2021-10-20T22:00:04Z</time>
      </trkpt>
      <trkpt lat="42.53479" lon="2.05686">
        <ele>1779.64</ele>
        <time>2021-10-20T22:00:04Z</time>
      </trkpt>
      <trkpt lat="42.53489" lon="2.0568">
        <ele>1778.14</ele>
        <time>2021-10-20T22:00:04Z</time>
      </trkpt>
      <trkpt lat="42.53495" lon="2.05655">
        <ele>1776.96</ele>
        <time>2021-10-20T22:00:04Z</time>
      </trkpt>
      <trkpt lat="42.53496" lon="2.05637">
        <ele>1776.56</ele>
        <time>2021-10-20T22:00:04Z</time>
      </trkpt>
      <trkpt lat="42.53496" lon="2.05608">
        <ele>1776.16</ele>
        <time>2021-10-20T22:00:04Z</time>
      </trkpt>
      <trkpt lat="42.53501" lon="2.05588">
        <ele>1775.29</ele>
        <time>2021-10-20T22:00:04Z</time>
      </trkpt>
      <trkpt lat="42.53509" lon="2.05569">
        <ele>1774.03</ele>
        <time>2021-10-20T22:00:04Z</time>
      </trkpt>
      <trkpt lat="42.53522" lon="2.05556">
        <ele>1772.47</ele>
        <time>2021-10-20T22:00:04Z</time>
      </trkpt>
      <trkpt lat="42.53534" lon="2.05547">
        <ele>1771.24</ele>
        <time>2021-10-20T22:00:04Z</time>
      </trkpt>
      <trkpt lat="42.53547" lon="2.05533">
        <ele>1770.07</ele>
        <time>2021-10-20T22:00:04Z</time>
      </trkpt>
      <trkpt lat="42.53561" lon="2.05511">
        <ele>1769.17</ele>
        <time>2021-10-20T22:00:04Z</time>
      </trkpt>
      <trkpt lat="42.53569" lon="2.05499">
        <ele>1767.95</ele>
        <time>2021-10-20T22:00:04Z</time>
      </trkpt>
      <trkpt lat="42.53578" lon="2.05481">
        <ele>1766.58</ele>
        <time>2021-10-20T22:00:04Z</time>
      </trkpt>
      <trkpt lat="42.53584" lon="2.05469">
        <ele>1765.82</ele>
        <time>2021-10-20T22:00:04Z</time>
      </trkpt>
      <trkpt lat="42.53593" lon="2.05452">
        <ele>1764.88</ele>
        <time>2021-10-20T22:00:04Z</time>
      </trkpt>
      <trkpt lat="42.53596" lon="2.05427">
        <ele>1765.32</ele>
        <time>2021-10-20T22:00:04Z</time>
      </trkpt>
      <trkpt lat="42.53601" lon="2.054">
        <ele>1765.62</ele>
        <time>2021-10-20T22:00:04Z</time>
      </trkpt>
      <trkpt lat="42.53604" lon="2.05378">
        <ele>1766.12</ele>
        <time>2021-10-20T22:00:04Z</time>
      </trkpt>
      <trkpt lat="42.53608" lon="2.05348">
        <ele>1766.68</ele>
        <time>2021-10-20T22:00:04Z</time>
      </trkpt>
      <trkpt lat="42.53612" lon="2.05323">
        <ele>1767.15</ele>
        <time>2021-10-20T22:00:04Z</time>
      </trkpt>
      <trkpt lat="42.53621" lon="2.053">
        <ele>1767.18</ele>
        <time>2021-10-20T22:00:04Z</time>
      </trkpt>
      <trkpt lat="42.53629" lon="2.05284">
        <ele>1766.93</ele>
        <time>2021-10-20T22:00:04Z</time>
      </trkpt>
      <trkpt lat="42.53639" lon="2.05264">
        <ele>1766.28</ele>
        <time>2021-10-20T22:00:04Z</time>
      </trkpt>
      <trkpt lat="42.53649" lon="2.05249">
        <ele>1765.41</ele>
        <time>2021-10-20T22:00:04Z</time>
      </trkpt>
      <trkpt lat="42.53657" lon="2.05237">
        <ele>1764.69</ele>
        <time>2021-10-20T22:00:04Z</time>
      </trkpt>
      <trkpt lat="42.53662" lon="2.05219">
        <ele>1764.2</ele>
        <time>2021-10-20T22:00:04Z</time>
      </trkpt>
      <trkpt lat="42.53669" lon="2.05198">
        <ele>1763.31</ele>
        <time>2021-10-20T22:00:04Z</time>
      </trkpt>
      <trkpt lat="42.53682" lon="2.05178">
        <ele>1761.22</ele>
        <time>2021-10-20T22:00:04Z</time>
      </trkpt>
      <trkpt lat="42.53692" lon="2.05163">
        <ele>1759.33</ele>
        <time>2021-10-20T22:00:04Z</time>
      </trkpt>
      <trkpt lat="42.53702" lon="2.0515">
        <ele>1757.21</ele>
        <time>2021-10-20T22:00:04Z</time>
      </trkpt>
      <trkpt lat="42.53718" lon="2.05137">
        <ele>1754.73</ele>
        <time>2021-10-20T22:00:04Z</time>
      </trkpt>
      <trkpt lat="42.53735" lon="2.05121">
        <ele>1751.82</ele>
        <time>2021-10-20T22:00:04Z</time>
      </trkpt>
      <trkpt lat="42.53745" lon="2.05107">
        <ele>1749.77</ele>
        <time>2021-10-20T22:00:04Z</time>
      </trkpt>
      <trkpt lat="42.53755" lon="2.05092">
        <ele>1748.05</ele>
        <time>2021-10-20T22:00:04Z</time>
      </trkpt>
      <trkpt lat="42.5377" lon="2.05075">
        <ele>1745.97</ele>
        <time>2021-10-20T22:00:04Z</time>
      </trkpt>
      <trkpt lat="42.53783" lon="2.05059">
        <ele>1745.72</ele>
        <time>2021-10-20T22:00:04Z</time>
      </trkpt>
      <trkpt lat="42.53795" lon="2.05045">
        <ele>1745.55</ele>
        <time>2021-10-20T22:00:04Z</time>
      </trkpt>
      <trkpt lat="42.53806" lon="2.0503">
        <ele>1745.58</ele>
        <time>2021-10-20T22:00:04Z</time>
      </trkpt>
      <trkpt lat="42.53812" lon="2.05013">
        <ele>1746.25</ele>
        <time>2021-10-20T22:00:04Z</time>
      </trkpt>
      <trkpt lat="42.53824" lon="2.05002">
        <ele>1746.34</ele>
        <time>2021-10-20T22:00:04Z</time>
      </trkpt>
      <trkpt lat="42.53831" lon="2.04985">
        <ele>1746.67</ele>
        <time>2021-10-20T22:00:04Z</time>
      </trkpt>
      <trkpt lat="42.53838" lon="2.04965">
        <ele>1746.93</ele>
        <time>2021-10-20T22:00:04Z</time>
      </trkpt>
      <trkpt lat="42.53841" lon="2.04945">
        <ele>1748.54</ele>
        <time>2021-10-20T22:00:04Z</time>
      </trkpt>
      <trkpt lat="42.53848" lon="2.04929">
        <ele>1749.24</ele>
        <time>2021-10-20T22:00:04Z</time>
      </trkpt>
      <trkpt lat="42.53854" lon="2.04916">
        <ele>1749.6</ele>
        <time>2021-10-20T22:00:04Z</time>
      </trkpt>
      <trkpt lat="42.53863" lon="2.04897">
        <ele>1749.78</ele>
        <time>2021-10-20T22:00:04Z</time>
      </trkpt>
      <trkpt lat="42.53872" lon="2.04882">
        <ele>1750.38</ele>
        <time>2021-10-20T22:00:04Z</time>
      </trkpt>
      <trkpt lat="42.53878" lon="2.04865">
        <ele>1751.67</ele>
        <time>2021-10-20T22:00:04Z</time>
      </trkpt>
      <trkpt lat="42.53888" lon="2.04834">
        <ele>1753.56</ele>
        <time>2021-10-20T22:00:04Z</time>
      </trkpt>
      <trkpt lat="42.53892" lon="2.0481">
        <ele>1755.96</ele>
        <time>2021-10-20T22:00:04Z</time>
      </trkpt>
      <trkpt lat="42.539" lon="2.04785">
        <ele>1757.63</ele>
        <time>2021-10-20T22:00:04Z</time>
      </trkpt>
      <trkpt lat="42.53904" lon="2.04761">
        <ele>1760.11</ele>
        <time>2021-10-20T22:00:04Z</time>
      </trkpt>
      <trkpt lat="42.53913" lon="2.04743">
        <ele>1760.31</ele>
        <time>2021-10-20T22:00:04Z</time>
      </trkpt>
      <trkpt lat="42.53923" lon="2.04722">
        <ele>1760.52</ele>
        <time>2021-10-20T22:00:04Z</time>
      </trkpt>
      <trkpt lat="42.53932" lon="2.04699">
        <ele>1761.05</ele>
        <time>2021-10-20T22:00:04Z</time>
      </trkpt>
      <trkpt lat="42.53937" lon="2.04673">
        <ele>1763.4</ele>
        <time>2021-10-20T22:00:04Z</time>
      </trkpt>
      <trkpt lat="42.53942" lon="2.04652">
        <ele>1765.28</ele>
        <time>2021-10-20T22:00:04Z</time>
      </trkpt>
      <trkpt lat="42.53949" lon="2.04638">
        <ele>1765.51</ele>
        <time>2021-10-20T22:00:04Z</time>
      </trkpt>
      <trkpt lat="42.53952" lon="2.04609">
        <ele>1769</ele>
        <time>2021-10-20T22:00:04Z</time>
      </trkpt>
      <trkpt lat="42.53959" lon="2.04585">
        <ele>1770.55</ele>
        <time>2021-10-20T22:00:04Z</time>
      </trkpt>
      <trkpt lat="42.53965" lon="2.04561">
        <ele>1772.39</ele>
        <time>2021-10-20T22:00:04Z</time>
      </trkpt>
      <trkpt lat="42.53976" lon="2.04525">
        <ele>1774.58</ele>
        <time>2021-10-20T22:00:04Z</time>
      </trkpt>
      <trkpt lat="42.53983" lon="2.04502">
        <ele>1775.97</ele>
        <time>2021-10-20T22:00:04Z</time>
      </trkpt>
      <trkpt lat="42.53989" lon="2.04482">
        <ele>1777.27</ele>
        <time>2021-10-20T22:00:04Z</time>
      </trkpt>
      <trkpt lat="42.53997" lon="2.04456">
        <ele>1779.35</ele>
        <time>2021-10-20T22:00:04Z</time>
      </trkpt>
      <trkpt lat="42.54007" lon="2.04428">
        <ele>1781.31</ele>
        <time>2021-10-20T22:00:04Z</time>
      </trkpt>
      <trkpt lat="42.54017" lon="2.044">
        <ele>1782.48</ele>
        <time>2021-10-20T22:00:04Z</time>
      </trkpt>
      <trkpt lat="42.54024" lon="2.04376">
        <ele>1783.28</ele>
        <time>2021-10-20T22:00:04Z</time>
      </trkpt>
      <trkpt lat="42.54033" lon="2.04355">
        <ele>1783.42</ele>
        <time>2021-10-20T22:00:04Z</time>
      </trkpt>
      <trkpt lat="42.54045" lon="2.04327">
        <ele>1783.27</ele>
        <time>2021-10-20T22:00:04Z</time>
      </trkpt>
      <trkpt lat="42.54059" lon="2.04299">
        <ele>1782.19</ele>
        <time>2021-10-20T22:00:04Z</time>
      </trkpt>
      <trkpt lat="42.54067" lon="2.04282">
        <ele>1781.74</ele>
        <time>2021-10-20T22:00:04Z</time>
      </trkpt>
      <trkpt lat="42.54073" lon="2.04268">
        <ele>1781.73</ele>
        <time>2021-10-20T22:00:04Z</time>
      </trkpt>
      <trkpt lat="42.54082" lon="2.04249">
        <ele>1781.48</ele>
        <time>2021-10-20T22:00:04Z</time>
      </trkpt>
      <trkpt lat="42.54096" lon="2.04221">
        <ele>1780.5</ele>
        <time>2021-10-20T22:00:04Z</time>
      </trkpt>
      <trkpt lat="42.54108" lon="2.04201">
        <ele>1779.22</ele>
        <time>2021-10-20T22:00:04Z</time>
      </trkpt>
      <trkpt lat="42.54117" lon="2.04185">
        <ele>1778.52</ele>
        <time>2021-10-20T22:00:04Z</time>
      </trkpt>
      <trkpt lat="42.54124" lon="2.04162">
        <ele>1779.2</ele>
        <time>2021-10-20T22:00:04Z</time>
      </trkpt>
      <trkpt lat="42.54133" lon="2.04137">
        <ele>1779.49</ele>
        <time>2021-10-20T22:00:04Z</time>
      </trkpt>
      <trkpt lat="42.54144" lon="2.04115">
        <ele>1779.18</ele>
        <time>2021-10-20T22:00:04Z</time>
      </trkpt>
      <trkpt lat="42.54144" lon="2.04094">
        <ele>1782.43</ele>
        <time>2021-10-20T22:00:04Z</time>
      </trkpt>
      <trkpt lat="42.54151" lon="2.04065">
        <ele>1784.26</ele>
        <time>2021-10-20T22:00:04Z</time>
      </trkpt>
      <trkpt lat="42.54161" lon="2.04038">
        <ele>1784.23</ele>
        <time>2021-10-20T22:00:04Z</time>
      </trkpt>
      <trkpt lat="42.54175" lon="2.04007">
        <ele>1782.18</ele>
        <time>2021-10-20T22:00:04Z</time>
      </trkpt>
      <trkpt lat="42.5418" lon="2.03991">
        <ele>1782.25</ele>
        <time>2021-10-20T22:00:04Z</time>
      </trkpt>
      <trkpt lat="42.54187" lon="2.03966">
        <ele>1782.93</ele>
        <time>2021-10-20T22:00:04Z</time>
      </trkpt>
      <trkpt lat="42.54202" lon="2.03944">
        <ele>1778.62</ele>
        <time>2021-10-20T22:00:04Z</time>
      </trkpt>
      <trkpt lat="42.54209" lon="2.03919">
        <ele>1778.59</ele>
        <time>2021-10-20T22:00:04Z</time>
      </trkpt>
      <trkpt lat="42.54215" lon="2.03892">
        <ele>1779.8</ele>
        <time>2021-10-20T22:00:04Z</time>
      </trkpt>
      <trkpt lat="42.54222" lon="2.03871">
        <ele>1779.68</ele>
        <time>2021-10-20T22:00:04Z</time>
      </trkpt>
      <trkpt lat="42.54236" lon="2.03848">
        <ele>1776.9</ele>
        <time>2021-10-20T22:00:04Z</time>
      </trkpt>
      <trkpt lat="42.54248" lon="2.03818">
        <ele>1777.28</ele>
        <time>2021-10-20T22:00:04Z</time>
      </trkpt>
      <trkpt lat="42.54261" lon="2.03794">
        <ele>1778.06</ele>
        <time>2021-10-20T22:00:04Z</time>
      </trkpt>
      <trkpt lat="42.5427" lon="2.03774">
        <ele>1778.99</ele>
        <time>2021-10-20T22:00:04Z</time>
      </trkpt>
      <trkpt lat="42.54281" lon="2.03746">
        <ele>1781.54</ele>
        <time>2021-10-20T22:00:04Z</time>
      </trkpt>
      <trkpt lat="42.54285" lon="2.03728">
        <ele>1784.24</ele>
        <time>2021-10-20T22:00:04Z</time>
      </trkpt>
      <trkpt lat="42.54292" lon="2.03697">
        <ele>1787.48</ele>
        <time>2021-10-20T22:00:04Z</time>
      </trkpt>
      <trkpt lat="42.54301" lon="2.03675">
        <ele>1789.51</ele>
        <time>2021-10-20T22:00:04Z</time>
      </trkpt>
      <trkpt lat="42.5431" lon="2.03653">
        <ele>1791.35</ele>
        <time>2021-10-20T22:00:04Z</time>
      </trkpt>
      <trkpt lat="42.5432" lon="2.03631">
        <ele>1791.46</ele>
        <time>2021-10-20T22:00:04Z</time>
      </trkpt>
      <trkpt lat="42.54329" lon="2.03619">
        <ele>1791.38</ele>
        <time>2021-10-20T22:00:04Z</time>
      </trkpt>
      <trkpt lat="42.54342" lon="2.03605">
        <ele>1791.4</ele>
        <time>2021-10-20T22:00:04Z</time>
      </trkpt>
      <trkpt lat="42.5435" lon="2.03586">
        <ele>1792.79</ele>
        <time>2021-10-20T22:00:04Z</time>
      </trkpt>
      <trkpt lat="42.54351" lon="2.03566">
        <ele>1795.66</ele>
        <time>2021-10-20T22:00:04Z</time>
      </trkpt>
      <trkpt lat="42.54351" lon="2.03548">
        <ele>1798.29</ele>
        <time>2021-10-20T22:00:04Z</time>
      </trkpt>
      <trkpt lat="42.54354" lon="2.03529">
        <ele>1800.82</ele>
        <time>2021-10-20T22:00:04Z</time>
      </trkpt>
      <trkpt lat="42.54357" lon="2.03508">
        <ele>1804.13</ele>
        <time>2021-10-20T22:00:04Z</time>
      </trkpt>
      <trkpt lat="42.54355" lon="2.03485">
        <ele>1808.49</ele>
        <time>2021-10-20T22:00:04Z</time>
      </trkpt>
      <trkpt lat="42.54356" lon="2.03444">
        <ele>1815.99</ele>
        <time>2021-10-20T22:00:04Z</time>
      </trkpt>
      <trkpt lat="42.54352" lon="2.0342">
        <ele>1820.79</ele>
        <time>2021-10-20T22:00:04Z</time>
      </trkpt>
      <trkpt lat="42.54347" lon="2.03401">
        <ele>1824.52</ele>
        <time>2021-10-20T22:00:04Z</time>
      </trkpt>
      <trkpt lat="42.54341" lon="2.03382">
        <ele>1828.05</ele>
        <time>2021-10-20T22:00:04Z</time>
      </trkpt>
      <trkpt lat="42.54338" lon="2.03364">
        <ele>1830.9</ele>
        <time>2021-10-20T22:00:04Z</time>
      </trkpt>
      <trkpt lat="42.54332" lon="2.03343">
        <ele>1833.95</ele>
        <time>2021-10-20T22:00:04Z</time>
      </trkpt>
      <trkpt lat="42.54327" lon="2.03323">
        <ele>1836.6</ele>
        <time>2021-10-20T22:00:04Z</time>
      </trkpt>
      <trkpt lat="42.5432" lon="2.03308">
        <ele>1837.81</ele>
        <time>2021-10-20T22:00:04Z</time>
      </trkpt>
      <trkpt lat="42.54314" lon="2.03297">
        <ele>1839.46</ele>
        <time>2021-10-20T22:00:04Z</time>
      </trkpt>
      <trkpt lat="42.54307" lon="2.03282">
        <ele>1842.16</ele>
        <time>2021-10-20T22:00:04Z</time>
      </trkpt>
      <trkpt lat="42.54306" lon="2.03268">
        <ele>1843.61</ele>
        <time>2021-10-20T22:00:04Z</time>
      </trkpt>
      <trkpt lat="42.54306" lon="2.03251">
        <ele>1845.14</ele>
        <time>2021-10-20T22:00:04Z</time>
      </trkpt>
      <trkpt lat="42.54307" lon="2.03233">
        <ele>1845.22</ele>
        <time>2021-10-20T22:00:04Z</time>
      </trkpt>
      <trkpt lat="42.54304" lon="2.03217">
        <ele>1845.72</ele>
        <time>2021-10-20T22:00:04Z</time>
      </trkpt>
      <trkpt lat="42.54297" lon="2.03194">
        <ele>1846.85</ele>
        <time>2021-10-20T22:00:04Z</time>
      </trkpt>
      <trkpt lat="42.54292" lon="2.03169">
        <ele>1847.48</ele>
        <time>2021-10-20T22:00:04Z</time>
      </trkpt>
      <trkpt lat="42.54285" lon="2.03155">
        <ele>1848.48</ele>
        <time>2021-10-20T22:00:04Z</time>
      </trkpt>
      <trkpt lat="42.5428" lon="2.03132">
        <ele>1848.93</ele>
        <time>2021-10-20T22:00:04Z</time>
      </trkpt>
      <trkpt lat="42.54277" lon="2.03116">
        <ele>1849.12</ele>
        <time>2021-10-20T22:00:04Z</time>
      </trkpt>
      <trkpt lat="42.5427" lon="2.03105">
        <ele>1850.14</ele>
        <time>2021-10-20T22:00:04Z</time>
      </trkpt>
      <trkpt lat="42.54264" lon="2.03089">
        <ele>1851.44</ele>
        <time>2021-10-20T22:00:04Z</time>
      </trkpt>
      <trkpt lat="42.54254" lon="2.0307">
        <ele>1853.48</ele>
        <time>2021-10-20T22:00:04Z</time>
      </trkpt>
      <trkpt lat="42.54245" lon="2.03046">
        <ele>1856.03</ele>
        <time>2021-10-20T22:00:04Z</time>
      </trkpt>
      <trkpt lat="42.54237" lon="2.03038">
        <ele>1858.23</ele>
        <time>2021-10-20T22:00:04Z</time>
      </trkpt>
      <trkpt lat="42.54228" lon="2.0303">
        <ele>1860.58</ele>
        <time>2021-10-20T22:00:04Z</time>
      </trkpt>
      <trkpt lat="42.54221" lon="2.03015">
        <ele>1862.33</ele>
        <time>2021-10-20T22:00:04Z</time>
      </trkpt>
      <trkpt lat="42.54216" lon="2.03004">
        <ele>1863.36</ele>
        <time>2021-10-20T22:00:04Z</time>
      </trkpt>
      <trkpt lat="42.54212" lon="2.02976">
        <ele>1863.94</ele>
        <time>2021-10-20T22:00:04Z</time>
      </trkpt>
      <trkpt lat="42.54212" lon="2.02957">
        <ele>1863.9</ele>
        <time>2021-10-20T22:00:04Z</time>
      </trkpt>
      <trkpt lat="42.54208" lon="2.0293">
        <ele>1864.32</ele>
        <time>2021-10-20T22:00:04Z</time>
      </trkpt>
      <trkpt lat="42.54206" lon="2.02914">
        <ele>1864.48</ele>
        <time>2021-10-20T22:00:04Z</time>
      </trkpt>
      <trkpt lat="42.54202" lon="2.02891">
        <ele>1864.72</ele>
        <time>2021-10-20T22:00:04Z</time>
      </trkpt>
      <trkpt lat="42.542" lon="2.02874">
        <ele>1864.74</ele>
        <time>2021-10-20T22:00:04Z</time>
      </trkpt>
      <trkpt lat="42.542" lon="2.02848">
        <ele>1864.47</ele>
        <time>2021-10-20T22:00:04Z</time>
      </trkpt>
      <trkpt lat="42.54201" lon="2.02828">
        <ele>1864.24</ele>
        <time>2021-10-20T22:00:04Z</time>
      </trkpt>
      <trkpt lat="42.54202" lon="2.02805">
        <ele>1864.16</ele>
        <time>2021-10-20T22:00:04Z</time>
      </trkpt>
      <trkpt lat="42.54202" lon="2.02784">
        <ele>1864.16</ele>
        <time>2021-10-20T22:00:04Z</time>
      </trkpt>
      <trkpt lat="42.54205" lon="2.02758">
        <ele>1864.11</ele>
        <time>2021-10-20T22:00:04Z</time>
      </trkpt>
      <trkpt lat="42.54206" lon="2.0274">
        <ele>1864.51</ele>
        <time>2021-10-20T22:00:04Z</time>
      </trkpt>
      <trkpt lat="42.54206" lon="2.0272">
        <ele>1865.04</ele>
        <time>2021-10-20T22:00:04Z</time>
      </trkpt>
      <trkpt lat="42.54211" lon="2.02695">
        <ele>1865.77</ele>
        <time>2021-10-20T22:00:04Z</time>
      </trkpt>
      <trkpt lat="42.54213" lon="2.02673">
        <ele>1867.43</ele>
        <time>2021-10-20T22:00:04Z</time>
      </trkpt>
      <trkpt lat="42.54215" lon="2.02657">
        <ele>1868.75</ele>
        <time>2021-10-20T22:00:04Z</time>
      </trkpt>
      <trkpt lat="42.54218" lon="2.02628">
        <ele>1871.36</ele>
        <time>2021-10-20T22:00:04Z</time>
      </trkpt>
      <trkpt lat="42.54218" lon="2.02603">
        <ele>1873.99</ele>
        <time>2021-10-20T22:00:04Z</time>
      </trkpt>
      <trkpt lat="42.54216" lon="2.02583">
        <ele>1875.81</ele>
        <time>2021-10-20T22:00:04Z</time>
      </trkpt>
      <trkpt lat="42.54212" lon="2.0256">
        <ele>1877.47</ele>
        <time>2021-10-20T22:00:04Z</time>
      </trkpt>
      <trkpt lat="42.54208" lon="2.02538">
        <ele>1878.75</ele>
        <time>2021-10-20T22:00:04Z</time>
      </trkpt>
      <trkpt lat="42.54205" lon="2.02521">
        <ele>1879.69</ele>
        <time>2021-10-20T22:00:04Z</time>
      </trkpt>
      <trkpt lat="42.54203" lon="2.02499">
        <ele>1881.2</ele>
        <time>2021-10-20T22:00:04Z</time>
      </trkpt>
      <trkpt lat="42.54203" lon="2.02475">
        <ele>1882.97</ele>
        <time>2021-10-20T22:00:04Z</time>
      </trkpt>
      <trkpt lat="42.54204" lon="2.0246">
        <ele>1884.2</ele>
        <time>2021-10-20T22:00:04Z</time>
      </trkpt>
      <trkpt lat="42.54206" lon="2.02438">
        <ele>1886.11</ele>
        <time>2021-10-20T22:00:04Z</time>
      </trkpt>
      <trkpt lat="42.54205" lon="2.02417">
        <ele>1887.26</ele>
        <time>2021-10-20T22:00:04Z</time>
      </trkpt>
      <trkpt lat="42.54207" lon="2.02398">
        <ele>1888.68</ele>
        <time>2021-10-20T22:00:04Z</time>
      </trkpt>
      <trkpt lat="42.5421" lon="2.02382">
        <ele>1890</ele>
        <time>2021-10-20T22:00:04Z</time>
      </trkpt>
      <trkpt lat="42.54214" lon="2.02365">
        <ele>1891.38</ele>
        <time>2021-10-20T22:00:04Z</time>
      </trkpt>
      <trkpt lat="42.54216" lon="2.02352">
        <ele>1892.26</ele>
        <time>2021-10-20T22:00:04Z</time>
      </trkpt>
      <trkpt lat="42.54216" lon="2.02333">
        <ele>1893.64</ele>
        <time>2021-10-20T22:00:04Z</time>
      </trkpt>
      <trkpt lat="42.54216" lon="2.0232">
        <ele>1894.57</ele>
        <time>2021-10-20T22:00:04Z</time>
      </trkpt>
      <trkpt lat="42.54218" lon="2.02301">
        <ele>1896.09</ele>
        <time>2021-10-20T22:00:04Z</time>
      </trkpt>
      <trkpt lat="42.54221" lon="2.02284">
        <ele>1897.49</ele>
        <time>2021-10-20T22:00:04Z</time>
      </trkpt>
      <trkpt lat="42.54224" lon="2.02261">
        <ele>1899.58</ele>
        <time>2021-10-20T22:00:04Z</time>
      </trkpt>
      <trkpt lat="42.54225" lon="2.02247">
        <ele>1900.8</ele>
        <time>2021-10-20T22:00:04Z</time>
      </trkpt>
      <trkpt lat="42.54225" lon="2.0222">
        <ele>1903.04</ele>
        <time>2021-10-20T22:00:04Z</time>
      </trkpt>
      <trkpt lat="42.54226" lon="2.02202">
        <ele>1904.72</ele>
        <time>2021-10-20T22:00:04Z</time>
      </trkpt>
      <trkpt lat="42.54225" lon="2.02184">
        <ele>1906.38</ele>
        <time>2021-10-20T22:00:04Z</time>
      </trkpt>
      <trkpt lat="42.54226" lon="2.02165">
        <ele>1908.15</ele>
        <time>2021-10-20T22:00:04Z</time>
      </trkpt>
      <trkpt lat="42.5423" lon="2.02153">
        <ele>1909.16</ele>
        <time>2021-10-20T22:00:04Z</time>
      </trkpt>
      <trkpt lat="42.54232" lon="2.02139">
        <ele>1910.48</ele>
        <time>2021-10-20T22:00:04Z</time>
      </trkpt>
      <trkpt lat="42.54222" lon="2.02151">
        <ele>1909.56</ele>
        <time>2021-10-20T22:00:04Z</time>
      </trkpt>
      <trkpt lat="42.54216" lon="2.02166">
        <ele>1908.2</ele>
        <time>2021-10-20T22:00:04Z</time>
      </trkpt>
      <trkpt lat="42.54206" lon="2.02184">
        <ele>1906.36</ele>
        <time>2021-10-20T22:00:04Z</time>
      </trkpt>
      <trkpt lat="42.54201" lon="2.02198">
        <ele>1904.76</ele>
        <time>2021-10-20T22:00:04Z</time>
      </trkpt>
      <trkpt lat="42.54196" lon="2.02223">
        <ele>1901.88</ele>
        <time>2021-10-20T22:00:04Z</time>
      </trkpt>
      <trkpt lat="42.54193" lon="2.02235">
        <ele>1900.62</ele>
        <time>2021-10-20T22:00:04Z</time>
      </trkpt>
      <trkpt lat="42.54182" lon="2.02251">
        <ele>1898.59</ele>
        <time>2021-10-20T22:00:04Z</time>
      </trkpt>
      <trkpt lat="42.54173" lon="2.02259">
        <ele>1898.62</ele>
        <time>2021-10-20T22:00:04Z</time>
      </trkpt>
      <trkpt lat="42.54164" lon="2.02272">
        <ele>1898.23</ele>
        <time>2021-10-20T22:00:04Z</time>
      </trkpt>
      <trkpt lat="42.54156" lon="2.0229">
        <ele>1897.15</ele>
        <time>2021-10-20T22:00:04Z</time>
      </trkpt>
      <trkpt lat="42.54147" lon="2.0231">
        <ele>1896.33</ele>
        <time>2021-10-20T22:00:04Z</time>
      </trkpt>
      <trkpt lat="42.54139" lon="2.02317">
        <ele>1896.64</ele>
        <time>2021-10-20T22:00:04Z</time>
      </trkpt>
      <trkpt lat="42.54131" lon="2.02324">
        <ele>1897</ele>
        <time>2021-10-20T22:00:04Z</time>
      </trkpt>
      <trkpt lat="42.54122" lon="2.02345">
        <ele>1896.45</ele>
        <time>2021-10-20T22:00:04Z</time>
      </trkpt>
      <trkpt lat="42.54082" lon="2.02387">
        <ele>1901.41</ele>
        <time>2021-10-20T22:00:04Z</time>
      </trkpt>
      <trkpt lat="42.54074" lon="2.02397">
        <ele>1902.54</ele>
        <time>2021-10-20T22:00:04Z</time>
      </trkpt>
      <trkpt lat="42.54061" lon="2.02401">
        <ele>1905.38</ele>
        <time>2021-10-20T22:00:04Z</time>
      </trkpt>
      <trkpt lat="42.54033" lon="2.02413">
        <ele>1913.51</ele>
        <time>2021-10-20T22:00:04Z</time>
      </trkpt>
      <trkpt lat="42.54027" lon="2.02424">
        <ele>1915.42</ele>
        <time>2021-10-20T22:00:04Z</time>
      </trkpt>
      <trkpt lat="42.54023" lon="2.02439">
        <ele>1916.06</ele>
        <time>2021-10-20T22:00:04Z</time>
      </trkpt>
      <trkpt lat="42.54017" lon="2.02455">
        <ele>1917.5</ele>
        <time>2021-10-20T22:00:04Z</time>
      </trkpt>
      <trkpt lat="42.54014" lon="2.0247">
        <ele>1917.64</ele>
        <time>2021-10-20T22:00:04Z</time>
      </trkpt>
      <trkpt lat="42.54009" lon="2.02489">
        <ele>1918.33</ele>
        <time>2021-10-20T22:00:04Z</time>
      </trkpt>
      <trkpt lat="42.54007" lon="2.02505">
        <ele>1917.63</ele>
        <time>2021-10-20T22:00:04Z</time>
      </trkpt>
      <trkpt lat="42.54003" lon="2.02521">
        <ele>1917.75</ele>
        <time>2021-10-20T22:00:04Z</time>
      </trkpt>
      <trkpt lat="42.54" lon="2.02538">
        <ele>1917.33</ele>
        <time>2021-10-20T22:00:04Z</time>
      </trkpt>
      <trkpt lat="42.53998" lon="2.02551">
        <ele>1916.87</ele>
        <time>2021-10-20T22:00:04Z</time>
      </trkpt>
      <trkpt lat="42.53995" lon="2.02563">
        <ele>1916.99</ele>
        <time>2021-10-20T22:00:04Z</time>
      </trkpt>
      <trkpt lat="42.53991" lon="2.02577">
        <ele>1917.45</ele>
        <time>2021-10-20T22:00:04Z</time>
      </trkpt>
      <trkpt lat="42.53986" lon="2.02592">
        <ele>1918.16</ele>
        <time>2021-10-20T22:00:04Z</time>
      </trkpt>
      <trkpt lat="42.53983" lon="2.02608">
        <ele>1917.86</ele>
        <time>2021-10-20T22:00:04Z</time>
      </trkpt>
      <trkpt lat="42.53982" lon="2.02621">
        <ele>1917</ele>
        <time>2021-10-20T22:00:04Z</time>
      </trkpt>
      <trkpt lat="42.53986" lon="2.02634">
        <ele>1914.33</ele>
        <time>2021-10-20T22:00:04Z</time>
      </trkpt>
      <trkpt lat="42.53988" lon="2.0265">
        <ele>1912.56</ele>
        <time>2021-10-20T22:00:04Z</time>
      </trkpt>
      <trkpt lat="42.53992" lon="2.0267">
        <ele>1909.9</ele>
        <time>2021-10-20T22:00:04Z</time>
      </trkpt>
      <trkpt lat="42.53975" lon="2.02706">
        <ele>1913.61</ele>
        <time>2021-10-20T22:00:04Z</time>
      </trkpt>
      <trkpt lat="42.53961" lon="2.02722">
        <ele>1918.66</ele>
        <time>2021-10-20T22:00:04Z</time>
      </trkpt>
      <trkpt lat="42.53942" lon="2.02746">
        <ele>1924.59</ele>
        <time>2021-10-20T22:00:04Z</time>
      </trkpt>
      <trkpt lat="42.53933" lon="2.02787">
        <ele>1926.08</ele>
        <time>2021-10-20T22:00:04Z</time>
      </trkpt>
      <trkpt lat="42.53933" lon="2.028">
        <ele>1925.96</ele>
        <time>2021-10-20T22:00:04Z</time>
      </trkpt>
      <trkpt lat="42.53931" lon="2.02813">
        <ele>1926.55</ele>
        <time>2021-10-20T22:00:04Z</time>
      </trkpt>
      <trkpt lat="42.53922" lon="2.0284">
        <ele>1929.78</ele>
        <time>2021-10-20T22:00:04Z</time>
      </trkpt>
      <trkpt lat="42.53916" lon="2.02856">
        <ele>1932.68</ele>
        <time>2021-10-20T22:00:04Z</time>
      </trkpt>
      <trkpt lat="42.53915" lon="2.0287">
        <ele>1933.73</ele>
        <time>2021-10-20T22:00:04Z</time>
      </trkpt>
      <trkpt lat="42.53911" lon="2.02887">
        <ele>1935.82</ele>
        <time>2021-10-20T22:00:04Z</time>
      </trkpt>
      <trkpt lat="42.5391" lon="2.02903">
        <ele>1936.87</ele>
        <time>2021-10-20T22:00:04Z</time>
      </trkpt>
      <trkpt lat="42.53907" lon="2.02918">
        <ele>1938.2</ele>
        <time>2021-10-20T22:00:04Z</time>
      </trkpt>
      <trkpt lat="42.53906" lon="2.02931">
        <ele>1938.9</ele>
        <time>2021-10-20T22:00:04Z</time>
      </trkpt>
      <trkpt lat="42.53903" lon="2.02943">
        <ele>1940.56</ele>
        <time>2021-10-20T22:00:04Z</time>
      </trkpt>
      <trkpt lat="42.53899" lon="2.02962">
        <ele>1942.86</ele>
        <time>2021-10-20T22:00:04Z</time>
      </trkpt>
      <trkpt lat="42.53896" lon="2.02977">
        <ele>1944.57</ele>
        <time>2021-10-20T22:00:04Z</time>
      </trkpt>
      <trkpt lat="42.53894" lon="2.0299">
        <ele>1945.68</ele>
        <time>2021-10-20T22:00:04Z</time>
      </trkpt>
      <trkpt lat="42.53883" lon="2.03023">
        <ele>1950.63</ele>
        <time>2021-10-20T22:00:04Z</time>
      </trkpt>
      <trkpt lat="42.53877" lon="2.03035">
        <ele>1953.05</ele>
        <time>2021-10-20T22:00:04Z</time>
      </trkpt>
      <trkpt lat="42.53873" lon="2.03058">
        <ele>1954.99</ele>
        <time>2021-10-20T22:00:04Z</time>
      </trkpt>
      <trkpt lat="42.53856" lon="2.03097">
        <ele>1960.93</ele>
        <time>2021-10-20T22:00:04Z</time>
      </trkpt>
      <trkpt lat="42.5385" lon="2.0312">
        <ele>1963</ele>
        <time>2021-10-20T22:00:04Z</time>
      </trkpt>
      <trkpt lat="42.53848" lon="2.03133">
        <ele>1964.05</ele>
        <time>2021-10-20T22:00:04Z</time>
      </trkpt>
      <trkpt lat="42.53844" lon="2.03144">
        <ele>1965.46</ele>
        <time>2021-10-20T22:00:04Z</time>
      </trkpt>
      <trkpt lat="42.53829" lon="2.0319">
        <ele>1970.85</ele>
        <time>2021-10-20T22:00:04Z</time>
      </trkpt>
      <trkpt lat="42.53829" lon="2.03206">
        <ele>1972.19</ele>
        <time>2021-10-20T22:00:04Z</time>
      </trkpt>
      <trkpt lat="42.53817" lon="2.03223">
        <ele>1975.1</ele>
        <time>2021-10-20T22:00:04Z</time>
      </trkpt>
      <trkpt lat="42.53805" lon="2.03231">
        <ele>1976.85</ele>
        <time>2021-10-20T22:00:04Z</time>
      </trkpt>
      <trkpt lat="42.53796" lon="2.03237">
        <ele>1977.89</ele>
        <time>2021-10-20T22:00:04Z</time>
      </trkpt>
      <trkpt lat="42.53785" lon="2.03243">
        <ele>1978.87</ele>
        <time>2021-10-20T22:00:04Z</time>
      </trkpt>
      <trkpt lat="42.53768" lon="2.03258">
        <ele>1979.42</ele>
        <time>2021-10-20T22:00:04Z</time>
      </trkpt>
      <trkpt lat="42.53759" lon="2.03267">
        <ele>1980.94</ele>
        <time>2021-10-20T22:00:04Z</time>
      </trkpt>
      <trkpt lat="42.53748" lon="2.03276">
        <ele>1983.03</ele>
        <time>2021-10-20T22:00:04Z</time>
      </trkpt>
      <trkpt lat="42.53723" lon="2.03309">
        <ele>1987.4</ele>
        <time>2021-10-20T22:00:04Z</time>
      </trkpt>
      <trkpt lat="42.53713" lon="2.03325">
        <ele>1988.59</ele>
        <time>2021-10-20T22:00:04Z</time>
      </trkpt>
      <trkpt lat="42.53703" lon="2.03347">
        <ele>1989</ele>
        <time>2021-10-20T22:00:04Z</time>
      </trkpt>
      <trkpt lat="42.53696" lon="2.03359">
        <ele>1990.58</ele>
        <time>2021-10-20T22:00:04Z</time>
      </trkpt>
      <trkpt lat="42.53686" lon="2.03382">
        <ele>1993.27</ele>
        <time>2021-10-20T22:00:04Z</time>
      </trkpt>
      <trkpt lat="42.53681" lon="2.03395">
        <ele>1994.47</ele>
        <time>2021-10-20T22:00:04Z</time>
      </trkpt>
      <trkpt lat="42.53676" lon="2.03408">
        <ele>1995.75</ele>
        <time>2021-10-20T22:00:04Z</time>
      </trkpt>
      <trkpt lat="42.5367" lon="2.03424">
        <ele>1997.38</ele>
        <time>2021-10-20T22:00:04Z</time>
      </trkpt>
      <trkpt lat="42.53666" lon="2.03439">
        <ele>1998.19</ele>
        <time>2021-10-20T22:00:04Z</time>
      </trkpt>
      <trkpt lat="42.5366" lon="2.03453">
        <ele>2000.28</ele>
        <time>2021-10-20T22:00:04Z</time>
      </trkpt>
      <trkpt lat="42.53652" lon="2.03473">
        <ele>2002.88</ele>
        <time>2021-10-20T22:00:04Z</time>
      </trkpt>
      <trkpt lat="42.5364" lon="2.03499">
        <ele>2007.25</ele>
        <time>2021-10-20T22:00:04Z</time>
      </trkpt>
      <trkpt lat="42.53629" lon="2.03518">
        <ele>2011.64</ele>
        <time>2021-10-20T22:00:04Z</time>
      </trkpt>
      <trkpt lat="42.53624" lon="2.03532">
        <ele>2013.11</ele>
        <time>2021-10-20T22:00:04Z</time>
      </trkpt>
      <trkpt lat="42.53617" lon="2.03546">
        <ele>2015.6</ele>
        <time>2021-10-20T22:00:04Z</time>
      </trkpt>
      <trkpt lat="42.53608" lon="2.03555">
        <ele>2019.44</ele>
        <time>2021-10-20T22:00:04Z</time>
      </trkpt>
      <trkpt lat="42.53599" lon="2.03573">
        <ele>2022.52</ele>
        <time>2021-10-20T22:00:04Z</time>
      </trkpt>
      <trkpt lat="42.5359" lon="2.03582">
        <ele>2026.28</ele>
        <time>2021-10-20T22:00:04Z</time>
      </trkpt>
      <trkpt lat="42.53578" lon="2.03591">
        <ele>2031.47</ele>
        <time>2021-10-20T22:00:04Z</time>
      </trkpt>
      <trkpt lat="42.53568" lon="2.036">
        <ele>2035.5</ele>
        <time>2021-10-20T22:00:04Z</time>
      </trkpt>
      <trkpt lat="42.5354" lon="2.03612">
        <ele>2042.26</ele>
        <time>2021-10-20T22:00:04Z</time>
      </trkpt>
      <trkpt lat="42.53527" lon="2.03615">
        <ele>2045.01</ele>
        <time>2021-10-20T22:00:04Z</time>
      </trkpt>
      <trkpt lat="42.53518" lon="2.03615">
        <ele>2047.15</ele>
        <time>2021-10-20T22:00:04Z</time>
      </trkpt>
      <trkpt lat="42.535" lon="2.03613">
        <ele>2051.67</ele>
        <time>2021-10-20T22:00:04Z</time>
      </trkpt>
      <trkpt lat="42.5349" lon="2.03609">
        <ele>2054.12</ele>
        <time>2021-10-20T22:00:04Z</time>
      </trkpt>
      <trkpt lat="42.53481" lon="2.03598">
        <ele>2056.74</ele>
        <time>2021-10-20T22:00:04Z</time>
      </trkpt>
      <trkpt lat="42.53467" lon="2.03578">
        <ele>2060.91</ele>
        <time>2021-10-20T22:00:04Z</time>
      </trkpt>
      <trkpt lat="42.53457" lon="2.03565">
        <ele>2063.67</ele>
        <time>2021-10-20T22:00:04Z</time>
      </trkpt>
      <trkpt lat="42.53444" lon="2.03541">
        <ele>2068.15</ele>
        <time>2021-10-20T22:00:04Z</time>
      </trkpt>
      <trkpt lat="42.53436" lon="2.03528">
        <ele>2070.77</ele>
        <time>2021-10-20T22:00:04Z</time>
      </trkpt>
      <trkpt lat="42.5343" lon="2.03513">
        <ele>2073.11</ele>
        <time>2021-10-20T22:00:04Z</time>
      </trkpt>
      <trkpt lat="42.53426" lon="2.03501">
        <ele>2074.75</ele>
        <time>2021-10-20T22:00:04Z</time>
      </trkpt>
      <trkpt lat="42.53423" lon="2.03485">
        <ele>2076.65</ele>
        <time>2021-10-20T22:00:04Z</time>
      </trkpt>
      <trkpt lat="42.5342" lon="2.0347">
        <ele>2078.48</ele>
        <time>2021-10-20T22:00:04Z</time>
      </trkpt>
      <trkpt lat="42.53415" lon="2.03454">
        <ele>2080.77</ele>
        <time>2021-10-20T22:00:04Z</time>
      </trkpt>
      <trkpt lat="42.53404" lon="2.03431">
        <ele>2084.06</ele>
        <time>2021-10-20T22:00:04Z</time>
      </trkpt>
      <trkpt lat="42.53394" lon="2.03416">
        <ele>2086.68</ele>
        <time>2021-10-20T22:00:04Z</time>
      </trkpt>
      <trkpt lat="42.53384" lon="2.03403">
        <ele>2089.19</ele>
        <time>2021-10-20T22:00:04Z</time>
      </trkpt>
      <trkpt lat="42.53375" lon="2.03392">
        <ele>2091.4</ele>
        <time>2021-10-20T22:00:04Z</time>
      </trkpt>
      <trkpt lat="42.53366" lon="2.03383">
        <ele>2093.47</ele>
        <time>2021-10-20T22:00:04Z</time>
      </trkpt>
      <trkpt lat="42.53355" lon="2.0337">
        <ele>2095.92</ele>
        <time>2021-10-20T22:00:04Z</time>
      </trkpt>
      <trkpt lat="42.53343" lon="2.03358">
        <ele>2098.26</ele>
        <time>2021-10-20T22:00:04Z</time>
      </trkpt>
      <trkpt lat="42.53333" lon="2.0335">
        <ele>2100.16</ele>
        <time>2021-10-20T22:00:04Z</time>
      </trkpt>
      <trkpt lat="42.53325" lon="2.03338">
        <ele>2101.99</ele>
        <time>2021-10-20T22:00:04Z</time>
      </trkpt>
      <trkpt lat="42.53312" lon="2.03326">
        <ele>2104.65</ele>
        <time>2021-10-20T22:00:04Z</time>
      </trkpt>
      <trkpt lat="42.53299" lon="2.03311">
        <ele>2107.56</ele>
        <time>2021-10-20T22:00:04Z</time>
      </trkpt>
      <trkpt lat="42.53292" lon="2.03303">
        <ele>2109.14</ele>
        <time>2021-10-20T22:00:04Z</time>
      </trkpt>
      <trkpt lat="42.53282" lon="2.03295">
        <ele>2110.76</ele>
        <time>2021-10-20T22:00:04Z</time>
      </trkpt>
      <trkpt lat="42.53266" lon="2.0328">
        <ele>2113.03</ele>
        <time>2021-10-20T22:00:04Z</time>
      </trkpt>
      <trkpt lat="42.53254" lon="2.03269">
        <ele>2114.72</ele>
        <time>2021-10-20T22:00:04Z</time>
      </trkpt>
      <trkpt lat="42.53229" lon="2.03236">
        <ele>2118.99</ele>
        <time>2021-10-20T22:00:04Z</time>
      </trkpt>
      <trkpt lat="42.53221" lon="2.0322">
        <ele>2120.85</ele>
        <time>2021-10-20T22:00:04Z</time>
      </trkpt>
      <trkpt lat="42.53215" lon="2.03203">
        <ele>2122.21</ele>
        <time>2021-10-20T22:00:04Z</time>
      </trkpt>
      <trkpt lat="42.53208" lon="2.03188">
        <ele>2123.3</ele>
        <time>2021-10-20T22:00:04Z</time>
      </trkpt>
      <trkpt lat="42.53199" lon="2.03167">
        <ele>2124.17</ele>
        <time>2021-10-20T22:00:04Z</time>
      </trkpt>
      <trkpt lat="42.5319" lon="2.03143">
        <ele>2124.52</ele>
        <time>2021-10-20T22:00:04Z</time>
      </trkpt>
      <trkpt lat="42.53182" lon="2.03125">
        <ele>2124.78</ele>
        <time>2021-10-20T22:00:04Z</time>
      </trkpt>
      <trkpt lat="42.53171" lon="2.03096">
        <ele>2124.2</ele>
        <time>2021-10-20T22:00:04Z</time>
      </trkpt>
      <trkpt lat="42.53166" lon="2.03078">
        <ele>2123.15</ele>
        <time>2021-10-20T22:00:04Z</time>
      </trkpt>
      <trkpt lat="42.53162" lon="2.0306">
        <ele>2122.1</ele>
        <time>2021-10-20T22:00:04Z</time>
      </trkpt>
      <trkpt lat="42.53157" lon="2.03042">
        <ele>2121.05</ele>
        <time>2021-10-20T22:00:04Z</time>
      </trkpt>
      <trkpt lat="42.53151" lon="2.03017">
        <ele>2118.55</ele>
        <time>2021-10-20T22:00:04Z</time>
      </trkpt>
      <trkpt lat="42.53148" lon="2.02997">
        <ele>2116.23</ele>
        <time>2021-10-20T22:00:04Z</time>
      </trkpt>
      <trkpt lat="42.53143" lon="2.02964">
        <ele>2112.31</ele>
        <time>2021-10-20T22:00:04Z</time>
      </trkpt>
      <trkpt lat="42.5314" lon="2.02943">
        <ele>2109.55</ele>
        <time>2021-10-20T22:00:04Z</time>
      </trkpt>
      <trkpt lat="42.53136" lon="2.02922">
        <ele>2106.66</ele>
        <time>2021-10-20T22:00:04Z</time>
      </trkpt>
      <trkpt lat="42.53132" lon="2.02899">
        <ele>2103.52</ele>
        <time>2021-10-20T22:00:04Z</time>
      </trkpt>
      <trkpt lat="42.53126" lon="2.02865">
        <ele>2098.94</ele>
        <time>2021-10-20T22:00:04Z</time>
      </trkpt>
      <trkpt lat="42.53124" lon="2.0285">
        <ele>2096.99</ele>
        <time>2021-10-20T22:00:04Z</time>
      </trkpt>
      <trkpt lat="42.53117" lon="2.02816">
        <ele>2092.73</ele>
        <time>2021-10-20T22:00:04Z</time>
      </trkpt>
      <trkpt lat="42.53114" lon="2.02791">
        <ele>2090.09</ele>
        <time>2021-10-20T22:00:04Z</time>
      </trkpt>
      <trkpt lat="42.53111" lon="2.02764">
        <ele>2087.3</ele>
        <time>2021-10-20T22:00:04Z</time>
      </trkpt>
      <trkpt lat="42.53107" lon="2.02729">
        <ele>2084.04</ele>
        <time>2021-10-20T22:00:04Z</time>
      </trkpt>
      <trkpt lat="42.53103" lon="2.027">
        <ele>2081.39</ele>
        <time>2021-10-20T22:00:04Z</time>
      </trkpt>
      <trkpt lat="42.53101" lon="2.02685">
        <ele>2080.03</ele>
        <time>2021-10-20T22:00:04Z</time>
      </trkpt>
      <trkpt lat="42.53097" lon="2.02666">
        <ele>2078.18</ele>
        <time>2021-10-20T22:00:04Z</time>
      </trkpt>
      <trkpt lat="42.53093" lon="2.02641">
        <ele>2075.79</ele>
        <time>2021-10-20T22:00:04Z</time>
      </trkpt>
      <trkpt lat="42.53086" lon="2.02604">
        <ele>2072.81</ele>
        <time>2021-10-20T22:00:04Z</time>
      </trkpt>
      <trkpt lat="42.53081" lon="2.02574">
        <ele>2070.74</ele>
        <time>2021-10-20T22:00:04Z</time>
      </trkpt>
      <trkpt lat="42.53078" lon="2.02549">
        <ele>2069.47</ele>
        <time>2021-10-20T22:00:04Z</time>
      </trkpt>
      <trkpt lat="42.53074" lon="2.02529">
        <ele>2068.67</ele>
        <time>2021-10-20T22:00:04Z</time>
      </trkpt>
      <trkpt lat="42.53069" lon="2.02504">
        <ele>2067.62</ele>
        <time>2021-10-20T22:00:04Z</time>
      </trkpt>
      <trkpt lat="42.53064" lon="2.02476">
        <ele>2066.71</ele>
        <time>2021-10-20T22:00:04Z</time>
      </trkpt>
      <trkpt lat="42.53063" lon="2.02455">
        <ele>2066.34</ele>
        <time>2021-10-20T22:00:04Z</time>
      </trkpt>
      <trkpt lat="42.53059" lon="2.02431">
        <ele>2065.76</ele>
        <time>2021-10-20T22:00:04Z</time>
      </trkpt>
      <trkpt lat="42.53059" lon="2.02405">
        <ele>2064.85</ele>
        <time>2021-10-20T22:00:04Z</time>
      </trkpt>
      <trkpt lat="42.53055" lon="2.02384">
        <ele>2063.7</ele>
        <time>2021-10-20T22:00:04Z</time>
      </trkpt>
      <trkpt lat="42.53051" lon="2.02355">
        <ele>2062.2</ele>
        <time>2021-10-20T22:00:04Z</time>
      </trkpt>
      <trkpt lat="42.53052" lon="2.02332">
        <ele>2061.4</ele>
        <time>2021-10-20T22:00:04Z</time>
      </trkpt>
      <trkpt lat="42.53052" lon="2.02295">
        <ele>2060.02</ele>
        <time>2021-10-20T22:00:04Z</time>
      </trkpt>
      <trkpt lat="42.53051" lon="2.02263">
        <ele>2058.64</ele>
        <time>2021-10-20T22:00:04Z</time>
      </trkpt>
      <trkpt lat="42.5305" lon="2.02241">
        <ele>2057.63</ele>
        <time>2021-10-20T22:00:04Z</time>
      </trkpt>
      <trkpt lat="42.5305" lon="2.02212">
        <ele>2056.48</ele>
        <time>2021-10-20T22:00:04Z</time>
      </trkpt>
      <trkpt lat="42.53048" lon="2.02189">
        <ele>2055.89</ele>
        <time>2021-10-20T22:00:04Z</time>
      </trkpt>
      <trkpt lat="42.53048" lon="2.02168">
        <ele>2055.43</ele>
        <time>2021-10-20T22:00:04Z</time>
      </trkpt>
      <trkpt lat="42.53046" lon="2.0215">
        <ele>2054.98</ele>
        <time>2021-10-20T22:00:04Z</time>
      </trkpt>
      <trkpt lat="42.5304" lon="2.0213">
        <ele>2054.98</ele>
        <time>2021-10-20T22:00:04Z</time>
      </trkpt>
      <trkpt lat="42.53035" lon="2.02117">
        <ele>2054.91</ele>
        <time>2021-10-20T22:00:04Z</time>
      </trkpt>
      <trkpt lat="42.53031" lon="2.02102">
        <ele>2054.85</ele>
        <time>2021-10-20T22:00:04Z</time>
      </trkpt>
      <trkpt lat="42.53022" lon="2.02084">
        <ele>2054.47</ele>
        <time>2021-10-20T22:00:04Z</time>
      </trkpt>
      <trkpt lat="42.53017" lon="2.02069">
        <ele>2054.22</ele>
        <time>2021-10-20T22:00:04Z</time>
      </trkpt>
      <trkpt lat="42.53012" lon="2.02053">
        <ele>2053.91</ele>
        <time>2021-10-20T22:00:04Z</time>
      </trkpt>
    </trkseg>
  </trk>
</gpx>